M I D A S
Marine Information and Data Acquisition System
Tripno 1269 of the Zeeleeuw from 2007-05-08 12:31:52 to 2007-05-08 13:35:23
Back to CruiseResearch ActivitiesStationsMapUnderway DataData graphs

EquipmentUnitsComment
TimeDGPSUTC
LatitudeDGPSDM.mWGS84
LongitudeDGPSDM.mWGS84
TemperatureSBE03/SBE38deg celciusITS90
ConductivitySBE21S/mITS90
SalinitySBE21 Practical Salinity Units
ChlorophylAChelsea fluorimeterg/lCalibrated in Aceton
Missing or incorrect values are displayed as -999
Sea surface data collected by the RV Zeeleeuw from 2007-05-08 07:31:53 to 2007-05-08 13:50:53
                                                                                    Next 1000 lines
Time Latitude Longitude Temperature Conductivity Salinity ChlorophylA
2007-05-08 07:32:03 51°13.714 2°55.752 18.9801 0.070955 0.359239 -2.871232
2007-05-08 07:32:08 51°13.718 2°55.75 18.9942 0.070852 0.358702 -2.871232
2007-05-08 07:32:13 51°13.724 2°55.746 19.008 0.070852 0.358702 -2.871232
2007-05-08 07:32:18 51°13.73 2°55.741 18.9403 0.070852 0.358709 -2.871232
2007-05-08 07:32:23 51°13.736 2°55.734 18.9365 0.070955 0.359245 -2.871232
2007-05-08 07:32:28 51°13.743 2°55.727 18.8815 0.070955 0.359245 -2.871232
2007-05-08 07:32:33 51°13.751 2°55.718 18.8747 0.070955 0.359239 -2.871232
2007-05-08 07:32:38 51°13.758 2°55.709 18.8177 0.070955 0.359226 -2.871232
2007-05-08 07:32:43 51°13.767 2°55.7 18.8168 0.070955 0.359226 -2.871232
2007-05-08 07:32:48 51°13.776 2°55.69 18.7625 0.070955 0.359213 -2.871232
2007-05-08 07:32:53 51°13.786 2°55.68 18.696 0.070955 0.359207 -2.871232
2007-05-08 07:32:58 51°13.795 2°55.67 18.7092 0.070955 0.359207 -2.871232
2007-05-08 07:33:03 51°13.805 2°55.659 18.6383 0.070955 0.3592 -2.871232
2007-05-08 07:33:08 51°13.815 2°55.649 18.5703 0.070852 0.358664 -2.871232
2007-05-08 07:33:13 51°13.826 2°55.639 18.7084 0.070852 0.358664 -2.871232
2007-05-08 07:33:18 51°13.837 2°55.629 18.6104 0.070955 0.359207 -2.871232
2007-05-08 07:33:23 51°13.848 2°55.62 18.5764 0.070955 0.359213 -2.871232
2007-05-08 07:33:28 51°13.86 2°55.611 18.6166 0.070955 0.359213 -2.871232
2007-05-08 07:33:33 51°13.872 2°55.602 18.743 0.070955 0.35922 -2.871232
2007-05-08 07:33:38 51°13.884 2°55.593 18.6678 0.070852 0.358689 -2.871232
2007-05-08 07:33:43 51°13.896 2°55.585 18.6692 0.070852 0.358689 -2.871232
2007-05-08 07:33:48 51°13.908 2°55.576 18.7499 0.070955 0.359226 -2.871232
2007-05-08 07:33:53 51°13.92 2°55.569 18.8286 0.070955 0.359226 -2.871232
2007-05-08 07:33:58 51°13.933 2°55.561 18.8189 0.070955 0.359226 -2.871232
2007-05-08 07:34:03 51°13.946 2°55.553 18.819 0.070955 0.359233 -2.871232
2007-05-08 07:34:08 51°13.958 2°55.544 18.813 0.070852 0.358696 -2.871232
2007-05-08 07:34:13 51°13.971 2°55.537 18.8213 0.070852 0.358696 -2.871232
2007-05-08 07:34:18 51°13.984 2°55.529 18.8144 0.070955 0.359233 -2.871232
2007-05-08 07:34:23 51°13.997 2°55.521 18.8333 0.070852 0.358689 -2.871232
2007-05-08 07:34:28 51°14.01 2°55.514 18.8713 0.070955 0.359233 -2.871232
2007-05-08 07:34:33 51°14.022 2°55.506 18.8411 0.070955 0.359233 -2.871232
2007-05-08 07:34:38 51°14.035 2°55.497 18.8521 0.070852 0.358696 -2.871232
2007-05-08 07:34:43 51°14.048 2°55.49 18.805 0.070852 0.358696 -2.871232
2007-05-08 07:34:48 51°14.061 2°55.482 18.7963 0.070955 0.359226 -2.871232
2007-05-08 07:34:53 51°14.074 2°55.474 18.8018 0.070955 0.359226 -2.871232
2007-05-08 07:34:58 51°14.086 2°55.466 18.8855 0.070955 0.359226 -2.871232
2007-05-08 07:35:03 51°14.099 2°55.458 18.794 0.070852 0.358689 -2.871232
2007-05-08 07:35:08 51°14.111 2°55.449 18.8565 0.070955 0.359226 -2.871232
2007-05-08 07:35:13 51°14.123 2°55.439 18.877 0.070955 0.359226 -2.871232
2007-05-08 07:35:18 51°14.136 2°55.43 18.8803 0.070852 0.358689 -2.871232
2007-05-08 07:35:23 51°14.148 2°55.419 18.8224 0.070955 0.359233 -2.871232
2007-05-08 07:35:28 51°14.161 2°55.409 18.8706 0.070955 0.359226 -2.871232
2007-05-08 07:35:33 51°14.173 2°55.398 18.9235 0.070955 0.359233 -2.871232
2007-05-08 07:35:38 51°14.185 2°55.386 18.9041 0.070955 0.359233 -2.871232
2007-05-08 07:35:43 51°14.197 2°55.372 18.9159 0.070955 0.359233 -2.871232
2007-05-08 07:35:48 51°14.209 2°55.358 18.8412 0.070852 0.358702 -2.871232
2007-05-08 07:35:53 51°14.221 2°55.342 18.7746 0.070852 0.358689 -2.871232
2007-05-08 07:35:58 51°14.232 2°55.327 18.7737 0.070955 0.35922 -2.871232
2007-05-08 07:36:03 51°14.244 2°55.311 18.7997 0.070852 0.358677 -2.871232
2007-05-08 07:36:08 51°14.256 2°55.294 18.8544 0.070852 0.358677 -2.871232
2007-05-08 07:36:13 51°14.267 2°55.276 18.8169 0.070852 0.358677 -2.871232
2007-05-08 07:36:18 51°14.277 2°55.258 18.8897 0.070955 0.359213 -2.871232
2007-05-08 07:36:23 51°14.288 2°55.238 18.8018 0.070955 0.35922 -2.871232
2007-05-08 07:36:28 51°14.298 2°55.218 18.7815 0.070955 0.35922 -2.871232
2007-05-08 07:36:33 51°14.307 2°55.198 18.8239 0.070852 0.358683 -2.871232
2007-05-08 07:36:38 51°14.317 2°55.177 18.7424 0.070955 0.359213 -2.871232
2007-05-08 07:36:43 51°14.326 2°55.156 18.7925 0.070955 0.359213 -2.871232
2007-05-08 07:36:48 51°14.336 2°55.134 18.7762 0.070955 0.359213 -2.871232
2007-05-08 07:36:53 51°14.345 2°55.113 18.732 0.070955 0.359213 -2.871232
2007-05-08 07:36:58 51°14.355 2°55.091 18.8227 0.070955 0.359213 -2.871232
2007-05-08 07:37:03 51°14.364 2°55.069 18.645 0.070955 0.359213 -2.871232
2007-05-08 07:37:08 51°14.374 2°55.047 18.7859 0.070955 0.359213 -2.871232
2007-05-08 07:37:13 51°14.383 2°55.025 18.6996 0.070955 0.359213 -2.871232
2007-05-08 07:37:18 51°14.393 2°55.002 18.7513 0.070852 0.358677 -2.871232
2007-05-08 07:37:23 51°14.403 2°54.98 18.7075 0.070852 0.358677 -2.871232
2007-05-08 07:37:28 51°14.413 2°54.958 18.7563 0.070852 0.358677 -2.871232
2007-05-08 07:37:33 51°14.422 2°54.935 18.6779 0.070955 0.35922 -2.871232
2007-05-08 07:37:38 51°14.432 2°54.912 18.7168 0.070955 0.35922 -2.871232
2007-05-08 07:37:43 51°14.441 2°54.888 18.6784 0.070955 0.35922 -2.871232
2007-05-08 07:37:48 51°14.451 2°54.864 18.6015 0.070955 0.359213 -2.871232
2007-05-08 07:37:53 51°14.461 2°54.84 18.6414 0.070955 0.359213 -2.871232
2007-05-08 07:37:58 51°14.471 2°54.816 18.6625 0.070955 0.359213 -2.871232
2007-05-08 07:38:03 51°14.481 2°54.792 18.7144 0.070955 0.359213 -2.871232
2007-05-08 07:38:08 51°14.491 2°54.767 18.6552 0.070955 0.35922 -2.871232
2007-05-08 07:38:13 51°14.501 2°54.742 18.6601 0.070955 0.35922 -2.871232
2007-05-08 07:38:18 51°14.51 2°54.717 18.6981 0.070955 0.35922 -2.871232
2007-05-08 07:38:23 51°14.519 2°54.692 18.695 0.070955 0.35922 -2.871232
2007-05-08 07:38:28 51°14.526 2°54.666 18.5671 0.070955 0.359245 -2.871232
2007-05-08 07:38:33 51°14.534 2°54.639 18.6793 0.070852 0.358734 -2.871232
2007-05-08 07:38:38 51°14.541 2°54.612 18.6305 0.070852 0.358754 -2.871232
2007-05-08 07:38:43 51°14.547 2°54.585 18.6331 0.070852 0.358754 -2.871232
2007-05-08 07:38:48 51°14.553 2°54.558 18.6102 0.070852 0.358754 -2.871232
2007-05-08 07:38:53 51°14.56 2°54.531 18.6616 0.070955 0.359271 -2.871232
2007-05-08 07:38:58 51°14.566 2°54.503 18.5976 0.070955 0.359245 -2.871232
2007-05-08 07:39:03 51°14.572 2°54.475 18.6688 0.070955 0.359207 -2.871232
2007-05-08 07:39:08 51°14.577 2°54.448 18.5487 0.070955 0.359188 -2.871232
2007-05-08 07:39:13 51°14.583 2°54.419 18.6423 0.070955 0.359188 -2.871232
2007-05-08 07:39:18 51°14.588 2°54.391 18.5647 0.070852 0.358632 -2.871232
2007-05-08 07:39:23 51°14.593 2°54.363 18.574 0.070955 0.359168 -2.871232
2007-05-08 07:39:28 51°14.598 2°54.335 18.5474 0.070955 0.359181 -2.871232
2007-05-08 07:39:33 51°14.602 2°54.307 18.6228 0.070955 0.3592 -2.871232
2007-05-08 07:39:38 51°14.607 2°54.279 18.5734 0.070955 0.35922 -2.871232
2007-05-08 07:39:43 51°14.612 2°54.251 18.6302 0.070955 0.35922 -2.871232
2007-05-08 07:39:48 51°14.617 2°54.223 18.5883 0.070955 0.359239 -2.871232
2007-05-08 07:39:53 51°14.622 2°54.195 18.6271 0.070955 0.359258 -2.871232
2007-05-08 07:39:58 51°14.626 2°54.167 18.5336 0.070955 0.359265 -2.871232
2007-05-08 07:40:03 51°14.631 2°54.139 18.5961 0.070852 0.358728 -2.871232
2007-05-08 07:40:08 51°14.635 2°54.111 18.6462 0.070955 0.359265 -2.871232
2007-05-08 07:40:13 51°14.638 2°54.082 18.6041 0.070955 0.359265 -2.871232
2007-05-08 07:40:18 51°14.642 2°54.054 18.5824 0.070955 0.359258 -2.871232
2007-05-08 07:40:23 51°14.644 2°54.026 18.5476 0.070955 0.359252 -2.871232
2007-05-08 07:40:28 51°14.647 2°53.997 18.6046 0.070955 0.359239 -2.871232
2007-05-08 07:40:33 51°14.649 2°53.969 18.5737 0.070852 0.358702 -2.871232
2007-05-08 07:40:38 51°14.651 2°53.94 18.5291 0.070955 0.359239 -2.871232
2007-05-08 07:40:43 51°14.653 2°53.912 18.5429 0.070955 0.359239 -2.871232
2007-05-08 07:40:48 51°14.656 2°53.884 18.591 0.070955 0.359252 -2.871232
2007-05-08 07:40:53 51°14.658 2°53.856 18.5117 0.070955 0.359265 -2.871232
2007-05-08 07:40:58 51°14.66 2°53.828 18.5859 0.070955 0.359271 -2.871232
2007-05-08 07:41:03 51°14.662 2°53.799 18.5435 0.070852 0.358747 -2.871232
2007-05-08 07:41:08 51°14.664 2°53.771 18.5834 0.070955 0.35929 -2.871232
2007-05-08 07:41:13 51°14.666 2°53.742 18.5031 0.070955 0.35929 -2.871232
2007-05-08 07:41:18 51°14.668 2°53.714 18.537 0.070955 0.359297 -2.871232
2007-05-08 07:41:23 51°14.67 2°53.685 18.5835 0.070955 0.359297 -2.871232
2007-05-08 07:41:28 51°14.671 2°53.657 18.541 0.070955 0.359297 -2.871232
2007-05-08 07:41:33 51°14.673 2°53.628 18.5339 0.070955 0.359297 -2.871232
2007-05-08 07:41:38 51°14.675 2°53.6 18.5325 0.070955 0.35929 -2.871232
2007-05-08 07:41:43 51°14.676 2°53.571 18.5568 0.070955 0.35929 -2.871232
2007-05-08 07:41:48 51°14.679 2°53.543 18.5818 0.070955 0.35929 -2.871232
2007-05-08 07:41:53 51°14.681 2°53.515 18.4982 0.070955 0.35929 -2.871232
2007-05-08 07:41:58 51°14.683 2°53.487 18.5936 0.070955 0.35929 -2.871232
2007-05-08 07:42:03 51°14.685 2°53.459 18.4989 0.070955 0.359297 -2.871232
2007-05-08 07:42:08 51°14.686 2°53.431 18.4645 0.070852 0.358773 -2.871232
2007-05-08 07:42:13 51°14.688 2°53.403 18.551 0.070852 0.358773 -2.871232
2007-05-08 07:42:18 51°14.691 2°53.375 18.5407 0.070955 0.359303 -2.871232
2007-05-08 07:42:23 51°14.692 2°53.346 18.5108 0.070852 0.358773 -2.871232
2007-05-08 07:42:28 51°14.694 2°53.318 18.5844 0.070852 0.358773 -2.871232
2007-05-08 07:42:33 51°14.696 2°53.29 18.5053 0.070852 0.358773 -2.871232
2007-05-08 07:42:38 51°14.696 2°53.262 18.5898 0.070852 0.358792 -2.871232
2007-05-08 07:42:43 51°14.696 2°53.234 18.5043 0.070852 0.358792 -2.871232
2007-05-08 07:42:48 51°14.695 2°53.206 18.5608 0.070852 0.358786 -2.871232
2007-05-08 07:42:53 51°14.694 2°53.178 18.5487 0.070955 0.359322 -2.871232
2007-05-08 07:42:58 51°14.691 2°53.15 18.535 0.070852 0.358779 -2.871232
2007-05-08 07:43:03 51°14.689 2°53.121 18.5364 0.070852 0.358773 -2.871232
2007-05-08 07:43:08 51°14.686 2°53.093 18.5007 0.070852 0.358779 -2.871232
2007-05-08 07:43:13 51°14.684 2°53.065 18.5107 0.070852 0.358779 -2.871232
2007-05-08 07:43:18 51°14.682 2°53.037 18.3614 0.070852 0.358779 -2.871232
2007-05-08 07:43:23 51°14.68 2°53.008 18.3521 0.070852 0.358779 -2.871232
2007-05-08 07:43:28 51°14.679 2°52.98 18.3803 0.070852 0.358786 -2.871232
2007-05-08 07:43:33 51°14.677 2°52.951 18.4013 0.070852 0.358786 -2.871232
2007-05-08 07:43:38 51°14.676 2°52.923 18.4293 0.070852 0.358792 -2.871232
2007-05-08 07:43:43 51°14.675 2°52.894 18.437 0.070852 0.358792 -2.871232
2007-05-08 07:43:48 51°14.674 2°52.866 18.4368 0.070852 0.358798 -2.871232
2007-05-08 07:43:53 51°14.673 2°52.837 18.4496 0.070955 0.359335 -2.871232
2007-05-08 07:43:58 51°14.672 2°52.809 18.4422 0.070955 0.359342 -2.871232
2007-05-08 07:44:03 51°14.671 2°52.78 18.4521 0.070852 0.358805 -2.871232
2007-05-08 07:44:08 51°14.67 2°52.752 18.4419 0.070955 0.359342 -2.871232
2007-05-08 07:44:13 51°14.669 2°52.723 18.4573 0.070955 0.359342 -2.871232
2007-05-08 07:44:18 51°14.667 2°52.695 18.4437 0.070955 0.359342 -2.871232
2007-05-08 07:44:23 51°14.666 2°52.667 18.4572 0.070955 0.359342 -2.871232
2007-05-08 07:44:28 51°14.666 2°52.638 18.4555 0.070852 0.358805 -2.871232
2007-05-08 07:44:33 51°14.665 2°52.61 18.4629 0.070852 0.358811 -2.871232
2007-05-08 07:44:38 51°14.663 2°52.581 18.4664 0.070852 0.358805 -2.871232
2007-05-08 07:44:43 51°14.662 2°52.553 18.4621 0.070852 0.358805 -2.871232
2007-05-08 07:44:48 51°14.661 2°52.525 18.4446 0.070852 0.358824 -2.871232
2007-05-08 07:44:53 51°14.661 2°52.496 18.4654 0.070852 0.358818 -2.871232
2007-05-08 07:44:58 51°14.659 2°52.468 18.4619 0.070852 0.35883 -2.871232
2007-05-08 07:45:03 51°14.658 2°52.439 18.4726 0.070852 0.35883 -2.871232
2007-05-08 07:45:08 51°14.657 2°52.411 18.4697 0.070852 0.358837 -2.871232
2007-05-08 07:45:13 51°14.656 2°52.382 18.4731 0.070852 0.358837 -2.871232
2007-05-08 07:45:18 51°14.655 2°52.354 18.4583 0.070852 0.358837 -2.871232
2007-05-08 07:45:23 51°14.654 2°52.326 18.4866 0.070852 0.358837 -2.871232
2007-05-08 07:45:28 51°14.653 2°52.298 18.4709 0.070852 0.358837 -2.871232
2007-05-08 07:45:33 51°14.652 2°52.27 18.4673 0.070852 0.358843 -2.871232
2007-05-08 07:45:38 51°14.652 2°52.242 18.4818 0.070852 0.358843 -2.871232
2007-05-08 07:45:43 51°14.651 2°52.213 18.4798 0.070852 0.358843 -2.871232
2007-05-08 07:45:48 51°14.65 2°52.184 18.4671 0.070955 0.359387 -2.871232
2007-05-08 07:45:53 51°14.649 2°52.157 18.4798 0.070852 0.358856 -2.871232
2007-05-08 07:45:58 51°14.648 2°52.131 18.49 0.070852 0.358869 -2.871232
2007-05-08 07:46:03 51°14.648 2°52.107 18.4897 0.070852 0.358875 -2.871232
2007-05-08 07:46:08 51°14.647 2°52.085 18.486 0.070852 0.358882 -2.871232
2007-05-08 07:46:13 51°14.646 2°52.064 18.5029 0.070852 0.358882 -2.871232
2007-05-08 07:46:18 51°14.645 2°52.045 18.514 0.070852 0.358882 -2.871232
2007-05-08 07:46:23 51°14.642 2°52.028 18.515 0.070852 0.358901 -2.871232
2007-05-08 07:46:28 51°14.638 2°52.013 18.5183 0.070852 0.358914 -2.871232
2007-05-08 07:46:33 51°14.633 2°52.002 18.5075 0.070852 0.358927 -2.871232
2007-05-08 07:46:38 51°14.628 2°51.993 18.4875 0.070852 0.358952 -2.871232
2007-05-08 07:46:43 51°14.624 2°51.985 18.4963 0.070852 0.358952 -2.871232
2007-05-08 07:46:48 51°14.619 2°51.979 18.509 0.070852 0.358939 -2.871232
2007-05-08 07:46:53 51°14.615 2°51.973 18.5149 0.070852 0.358933 -2.871232
2007-05-08 07:46:58 51°14.612 2°51.968 18.5123 0.070852 0.358933 -2.871232
2007-05-08 07:47:03 51°14.609 2°51.965 18.5117 0.070852 0.358933 -2.871232
2007-05-08 07:47:08 51°14.606 2°51.963 18.5088 0.070852 0.358927 -2.871232
2007-05-08 07:47:13 51°14.603 2°51.961 18.507 0.070852 0.358927 -2.871232
2007-05-08 07:47:18 51°14.6 2°51.959 18.5067 0.070852 0.358927 -2.871232
2007-05-08 07:47:23 51°14.597 2°51.957 18.5052 0.070852 0.358933 -2.871232
2007-05-08 07:47:28 51°14.595 2°51.957 18.504 0.070852 0.358933 -2.871232
2007-05-08 07:47:33 51°14.592 2°51.956 18.4919 0.070852 0.358927 -2.871232
2007-05-08 07:47:38 51°14.59 2°51.956 18.4995 0.070852 0.358939 -2.871232
2007-05-08 07:47:43 51°14.588 2°51.956 18.4979 0.070852 0.358939 -2.871232
2007-05-08 07:47:48 51°14.586 2°51.956 18.4994 0.070852 0.358939 -2.871232
2007-05-08 07:47:53 51°14.585 2°51.955 18.511 0.070852 0.358946 -2.871232
2007-05-08 07:47:58 51°14.583 2°51.955 18.5056 0.070852 0.358952 -2.871232
2007-05-08 07:48:03 51°14.582 2°51.955 18.508 0.070852 0.358959 -2.871232
2007-05-08 07:48:08 51°14.58 2°51.955 18.5125 0.070852 0.358959 -2.871232
2007-05-08 07:48:13 51°14.578 2°51.955 18.5125 0.070852 0.358959 -2.871232
2007-05-08 07:48:18 51°14.577 2°51.955 18.5177 0.070852 0.358959 -2.871232
2007-05-08 07:48:23 51°14.576 2°51.956 18.5168 0.070852 0.358965 -2.871232
2007-05-08 07:48:28 51°14.574 2°51.957 18.528 0.070852 0.358972 -2.871232
2007-05-08 07:48:33 51°14.573 2°51.957 18.5325 0.070852 0.358978 -2.871232
2007-05-08 07:48:38 51°14.572 2°51.958 18.5338 0.070852 0.358978 -2.871232
2007-05-08 07:48:43 51°14.571 2°51.96 18.5274 0.070852 0.358978 -2.871232
2007-05-08 07:48:48 51°14.571 2°51.961 18.5356 0.070852 0.358984 -2.871232
2007-05-08 07:48:53 51°14.57 2°51.962 18.5391 0.070852 0.358991 -2.871232
2007-05-08 07:48:58 51°14.569 2°51.962 18.5491 0.070852 0.358997 -2.871232
2007-05-08 07:49:03 51°14.569 2°51.963 18.5477 0.070852 0.358997 -2.871232
2007-05-08 07:49:08 51°14.568 2°51.964 18.5485 0.070852 0.359004 -2.871232
2007-05-08 07:49:13 51°14.568 2°51.965 18.5508 0.070852 0.359004 -2.871232
2007-05-08 07:49:18 51°14.567 2°51.967 18.5489 0.070852 0.35901 -2.871232
2007-05-08 07:49:23 51°14.567 2°51.968 18.5541 0.070852 0.35901 -2.871232
2007-05-08 07:49:28 51°14.566 2°51.97 18.5495 0.070852 0.359016 -2.871232
2007-05-08 07:49:33 51°14.566 2°51.972 18.5551 0.070852 0.359036 -2.871232
2007-05-08 07:49:38 51°14.566 2°51.973 18.558 0.070852 0.359036 -2.871232
2007-05-08 07:49:43 51°14.565 2°51.975 18.5582 0.070852 0.359036 -2.871232
2007-05-08 07:49:48 51°14.565 2°51.976 18.5659 0.070852 0.359042 -2.871232
2007-05-08 07:49:53 51°14.565 2°51.978 18.5706 0.070852 0.359049 -2.871232
2007-05-08 07:49:58 51°14.565 2°51.979 18.5772 0.070852 0.359055 -2.871232
2007-05-08 07:50:03 51°14.564 2°51.98 18.5782 0.070852 0.359061 -2.871232
2007-05-08 07:50:08 51°14.564 2°51.982 18.5773 0.070852 0.359061 -2.871232
2007-05-08 07:50:13 51°14.564 2°51.983 18.5751 0.070852 0.359061 -2.871232
2007-05-08 07:50:18 51°14.564 2°51.984 18.5824 0.070852 0.359074 -2.871232
2007-05-08 07:50:23 51°14.564 2°51.986 18.5882 0.070852 0.359068 -2.871232
2007-05-08 07:50:28 51°14.564 2°51.987 18.59 0.070852 0.359081 -2.871232
2007-05-08 07:50:33 51°14.564 2°51.989 18.5847 0.070852 0.359087 -2.871232
2007-05-08 07:50:38 51°14.564 2°51.99 18.589 0.070852 0.359087 -2.871232
2007-05-08 07:50:43 51°14.563 2°51.992 18.5917 0.070852 0.359087 -2.871232
2007-05-08 07:50:48 51°14.563 2°51.993 18.5982 0.070852 0.359081 -2.871232
2007-05-08 07:50:53 51°14.563 2°51.995 18.5963 0.070852 0.359087 -2.871232
2007-05-08 07:50:58 51°14.562 2°51.997 18.5972 0.070852 0.3591 -2.871232
2007-05-08 07:51:03 51°14.561 2°51.999 18.5998 0.070852 0.359106 -2.871232
2007-05-08 07:51:08 51°14.56 2°52 18.6075 0.070852 0.359113 -2.871232
2007-05-08 07:51:13 51°14.559 2°52.002 18.6102 0.070852 0.359113 -2.871232
2007-05-08 07:51:18 51°14.557 2°52.004 18.6083 0.070852 0.359113 -2.871232
2007-05-08 07:51:23 51°14.555 2°52.005 18.6103 0.070852 0.359119 -2.871232
2007-05-08 07:51:28 51°14.552 2°52.007 18.611 0.070852 0.359126 -2.871232
2007-05-08 07:51:33 51°14.549 2°52.009 18.6143 0.070852 0.359126 -2.871232
2007-05-08 07:51:38 51°14.545 2°52.01 18.6203 0.070749 0.358588 -2.871232
2007-05-08 07:51:43 51°14.541 2°52.012 18.6241 0.070749 0.358588 -2.871232
2007-05-08 07:51:48 51°14.537 2°52.014 18.6231 0.070852 0.359126 -2.871232
2007-05-08 07:51:53 51°14.531 2°52.013 18.6279 0.070852 0.359126 -2.871232
2007-05-08 07:51:58 51°14.526 2°52.014 18.625 0.070852 0.359132 -2.871232
2007-05-08 07:52:03 51°14.52 2°52.012 18.6296 0.070749 0.358601 -2.871232
2007-05-08 07:52:08 51°14.514 2°52.01 18.6358 0.070852 0.359132 -2.871232
2007-05-08 07:52:13 51°14.507 2°52.007 18.642 0.070852 0.359132 -2.871232
2007-05-08 07:52:18 51°14.501 2°52.003 18.6422 0.070852 0.359145 -2.871232
2007-05-08 07:52:23 51°14.494 2°51.999 18.6421 0.070852 0.359145 -2.871232
2007-05-08 07:52:28 51°14.488 2°51.993 18.6453 0.070852 0.359158 -2.871232
2007-05-08 07:52:33 51°14.482 2°51.986 18.6503 0.070852 0.359158 -2.871232
2007-05-08 07:52:38 51°14.477 2°51.979 18.6505 0.070852 0.359158 -2.871232
2007-05-08 07:52:43 51°14.471 2°51.972 18.6542 0.070852 0.359158 -2.871232
2007-05-08 07:52:48 51°14.467 2°51.964 18.6547 0.070749 0.35862 -2.871232
2007-05-08 07:52:53 51°14.463 2°51.956 18.6587 0.070749 0.358627 -2.871232
2007-05-08 07:52:58 51°14.459 2°51.949 18.6621 0.070852 0.359171 -2.871232
2007-05-08 07:53:03 51°14.456 2°51.941 18.6642 0.070852 0.359171 -2.871232
2007-05-08 07:53:08 51°14.454 2°51.934 18.6682 0.070852 0.359171 -2.871232
2007-05-08 07:53:13 51°14.452 2°51.927 18.669 0.070852 0.359171 -2.871232
2007-05-08 07:53:18 51°14.45 2°51.92 18.6702 0.070852 0.359171 -2.871232
2007-05-08 07:53:23 51°14.448 2°51.914 18.6724 0.070852 0.359177 -2.871232
2007-05-08 07:53:28 51°14.446 2°51.908 18.6758 0.070852 0.359177 -2.871232
2007-05-08 07:53:33 51°14.445 2°51.902 18.6781 0.070749 0.35864 -2.871232
2007-05-08 07:53:38 51°14.444 2°51.896 18.6817 0.070852 0.359177 -2.871232
2007-05-08 07:53:43 51°14.443 2°51.891 18.6804 0.070852 0.359177 -2.871232
2007-05-08 07:53:48 51°14.442 2°51.886 18.6825 0.070749 0.358646 -2.871232
2007-05-08 07:53:53 51°14.441 2°51.88 18.6848 0.070852 0.359183 -2.871232
2007-05-08 07:53:58 51°14.441 2°51.875 18.6873 0.070852 0.359183 -2.871232
2007-05-08 07:54:03 51°14.44 2°51.87 18.6914 0.070852 0.35919 -2.871232
2007-05-08 07:54:08 51°14.44 2°51.865 18.694 0.070749 0.358659 -2.871232
2007-05-08 07:54:13 51°14.44 2°51.861 18.6944 0.070749 0.358659 -2.871232
2007-05-08 07:54:18 51°14.439 2°51.857 18.6965 0.070852 0.359196 -2.871232
2007-05-08 07:54:23 51°14.439 2°51.853 18.6972 0.070852 0.35919 -2.871232
2007-05-08 07:54:28 51°14.439 2°51.849 18.7009 0.070749 0.358652 -2.871232
2007-05-08 07:54:33 51°14.439 2°51.845 18.7048 0.070749 0.358659 -2.871232
2007-05-08 07:54:38 51°14.439 2°51.841 18.7067 0.070749 0.358659 -2.871232
2007-05-08 07:54:43 51°14.439 2°51.837 18.7088 0.070749 0.358659 -2.871232
2007-05-08 07:54:48 51°14.439 2°51.834 18.7097 0.070749 0.358659 -2.871232
2007-05-08 07:54:53 51°14.44 2°51.83 18.7123 0.070852 0.359203 -2.871232
2007-05-08 07:54:58 51°14.44 2°51.827 18.7133 0.070749 0.358665 -2.871232
2007-05-08 07:55:03 51°14.44 2°51.823 18.717 0.070749 0.358672 -2.871232
2007-05-08 07:55:08 51°14.44 2°51.821 18.7213 0.070749 0.358672 -2.871232
2007-05-08 07:55:13 51°14.44 2°51.819 18.7214 0.070749 0.358672 -2.871232
2007-05-08 07:55:18 51°14.44 2°51.816 18.719 0.070749 0.358678 -2.871232
2007-05-08 07:55:23 51°14.44 2°51.813 18.7213 0.070749 0.358678 -2.871232
2007-05-08 07:55:28 51°14.439 2°51.809 18.7235 0.070749 0.358685 -2.871232
2007-05-08 07:55:33 51°14.439 2°51.805 18.7252 0.070749 0.358691 -2.871232
2007-05-08 07:55:38 51°14.439 2°51.8 18.7288 0.070852 0.359228 -2.871232
2007-05-08 07:55:43 51°14.438 2°51.794 18.7292 0.070852 0.359228 -2.871232
2007-05-08 07:55:48 51°14.438 2°51.788 18.731 0.070852 0.359222 -2.871232
2007-05-08 07:55:53 51°14.437 2°51.781 18.7308 0.070749 0.358685 -2.871232
2007-05-08 07:55:58 51°14.436 2°51.773 18.7349 0.070749 0.358685 -2.871232
2007-05-08 07:56:03 51°14.435 2°51.766 18.7389 0.070852 0.359222 -2.871232
2007-05-08 07:56:08 51°14.435 2°51.759 18.7413 0.070749 0.358685 -2.871232
2007-05-08 07:56:13 51°14.434 2°51.753 18.7411 0.070749 0.358685 -2.871232
2007-05-08 07:56:18 51°14.434 2°51.747 18.7427 0.070749 0.358685 -2.871232
2007-05-08 07:56:23 51°14.433 2°51.741 18.7453 0.070749 0.358685 -2.871232
2007-05-08 07:56:28 51°14.433 2°51.735 18.7472 0.070749 0.358697 -2.871232
2007-05-08 07:56:33 51°14.433 2°51.729 18.7509 0.070749 0.358697 -2.871232
2007-05-08 07:56:38 51°14.432 2°51.723 18.7507 0.070749 0.358704 -2.871232
2007-05-08 07:56:43 51°14.432 2°51.716 18.7546 0.070749 0.358704 -2.871232
2007-05-08 07:56:48 51°14.432 2°51.709 18.7558 0.070749 0.358704 -2.871232
2007-05-08 07:56:53 51°14.433 2°51.702 18.7579 0.070749 0.358697 -2.871232
2007-05-08 07:56:58 51°14.433 2°51.695 18.7611 0.070749 0.358697 -2.871232
2007-05-08 07:57:03 51°14.434 2°51.687 18.7641 0.070749 0.358697 -2.871232
2007-05-08 07:57:08 51°14.435 2°51.679 18.7664 0.070749 0.358704 -2.871232
2007-05-08 07:57:13 51°14.436 2°51.671 18.7684 0.070749 0.358704 -2.871232
2007-05-08 07:57:18 51°14.437 2°51.662 18.7694 0.070749 0.358704 -2.871232
2007-05-08 07:57:23 51°14.438 2°51.654 18.7696 0.070749 0.358704 -2.871232
2007-05-08 07:57:28 51°14.439 2°51.646 18.771 0.070749 0.35871 -2.871232
2007-05-08 07:57:33 51°14.439 2°51.638 18.775 0.070749 0.358717 -2.871232
2007-05-08 07:57:38 51°14.44 2°51.63 18.7768 0.070749 0.358717 -2.871232
2007-05-08 07:57:43 51°14.44 2°51.623 18.7755 0.070749 0.358717 -2.871232
2007-05-08 07:57:48 51°14.44 2°51.616 18.7789 0.070749 0.358717 -2.871232
2007-05-08 07:57:53 51°14.44 2°51.61 18.783 0.070749 0.358723 -2.871232
2007-05-08 07:57:58 51°14.441 2°51.603 18.7861 0.070749 0.358736 -2.871232
2007-05-08 07:58:03 51°14.44 2°51.597 18.7886 0.070749 0.35873 -2.871232
2007-05-08 07:58:08 51°14.44 2°51.591 18.7918 0.070749 0.358736 -2.871232
2007-05-08 07:58:13 51°14.439 2°51.585 18.7944 0.070749 0.358736 -2.871232
2007-05-08 07:58:18 51°14.439 2°51.579 18.7962 0.070749 0.358736 -2.871232
2007-05-08 07:58:23 51°14.438 2°51.573 18.7954 0.070749 0.358736 -2.871232
2007-05-08 07:58:28 51°14.437 2°51.566 18.7953 0.070749 0.35873 -2.871232
2007-05-08 07:58:33 51°14.436 2°51.558 18.7975 0.070749 0.358736 -2.871232
2007-05-08 07:58:38 51°14.434 2°51.551 18.8026 0.070749 0.358736 -2.871232
2007-05-08 07:58:43 51°14.432 2°51.543 18.8059 0.070749 0.358736 -2.871232
2007-05-08 07:58:48 51°14.43 2°51.536 18.8071 0.070749 0.358736 -2.871232
2007-05-08 07:58:53 51°14.428 2°51.529 18.8072 0.070749 0.35873 -2.871232
2007-05-08 07:58:58 51°14.426 2°51.522 18.8088 0.070749 0.35873 -2.871232
2007-05-08 07:59:03 51°14.423 2°51.515 18.8132 0.070749 0.35873 -2.871232
2007-05-08 07:59:08 51°14.42 2°51.508 18.817 0.070749 0.35873 -2.871232
2007-05-08 07:59:13 51°14.417 2°51.501 18.818 0.070749 0.35873 -2.871232
2007-05-08 07:59:18 51°14.415 2°51.495 18.8192 0.070749 0.358742 -2.871232
2007-05-08 07:59:23 51°14.413 2°51.487 18.8199 0.070749 0.358742 -2.871232
2007-05-08 07:59:28 51°14.411 2°51.48 18.8246 0.070749 0.358742 -2.871232
2007-05-08 07:59:33 51°14.409 2°51.473 18.8282 0.070749 0.358736 -2.871232
2007-05-08 07:59:38 51°14.407 2°51.466 18.8276 0.070749 0.358742 -2.871232
2007-05-08 07:59:43 51°14.406 2°51.459 18.8291 0.070749 0.358742 -2.871232
2007-05-08 07:59:48 51°14.405 2°51.451 18.8325 0.070749 0.358742 -2.871232
2007-05-08 07:59:53 51°14.404 2°51.443 18.8351 0.070749 0.358749 -2.871232
2007-05-08 07:59:58 51°14.403 2°51.435 18.8357 0.070749 0.358742 -2.871232
2007-05-08 08:00:03 51°14.402 2°51.427 18.8381 0.070749 0.358742 -2.871232
2007-05-08 08:00:08 51°14.402 2°51.419 18.8448 0.070749 0.358742 -2.871232
2007-05-08 08:00:13 51°14.401 2°51.411 18.8464 0.070749 0.358742 -2.871232
2007-05-08 08:00:18 51°14.401 2°51.403 18.8501 0.070749 0.358749 -2.871232
2007-05-08 08:00:23 51°14.401 2°51.395 18.8489 0.070749 0.358755 -2.871232
2007-05-08 08:00:28 51°14.401 2°51.387 18.8519 0.070749 0.358755 -2.871232
2007-05-08 08:00:33 51°14.4 2°51.379 18.8557 0.070749 0.358755 -2.871232
2007-05-08 08:00:38 51°14.4 2°51.371 18.8575 0.070749 0.358762 -2.871232
2007-05-08 08:00:43 51°14.399 2°51.362 18.8578 0.070749 0.358762 -2.871232
2007-05-08 08:00:48 51°14.399 2°51.354 18.8605 0.070749 0.358768 -2.871232
2007-05-08 08:00:53 51°14.397 2°51.345 18.8654 0.070749 0.358774 -2.871232
2007-05-08 08:00:58 51°14.396 2°51.337 18.8666 0.070749 0.358774 -2.871232
2007-05-08 08:01:03 51°14.395 2°51.33 18.8679 0.070749 0.358774 -2.871232
2007-05-08 08:01:08 51°14.394 2°51.321 18.8694 0.070749 0.358781 -2.871232
2007-05-08 08:01:13 51°14.392 2°51.314 18.8676 0.070749 0.358781 -2.871232
2007-05-08 08:01:18 51°14.391 2°51.306 18.869 0.070749 0.358774 -2.871232
2007-05-08 08:01:23 51°14.388 2°51.299 18.8733 0.070749 0.358774 -2.871232
2007-05-08 08:01:28 51°14.386 2°51.292 18.875 0.070749 0.358787 -2.871232
2007-05-08 08:01:33 51°14.383 2°51.285 18.8767 0.070749 0.358794 -2.871232
2007-05-08 08:01:38 51°14.38 2°51.278 18.881 0.070749 0.358781 -2.871232
2007-05-08 08:01:43 51°14.378 2°51.27 18.8857 0.070749 0.358781 -2.871232
2007-05-08 08:01:48 51°14.375 2°51.263 18.8878 0.070749 0.358781 -2.871232
2007-05-08 08:01:53 51°14.372 2°51.257 18.8892 0.070749 0.358787 -2.871232
2007-05-08 08:01:58 51°14.37 2°51.25 18.8883 0.070749 0.358781 -2.871232
2007-05-08 08:02:03 51°14.368 2°51.243 18.8901 0.070749 0.358787 -2.871232
2007-05-08 08:02:08 51°14.365 2°51.236 18.8939 0.070749 0.358781 -2.871232
2007-05-08 08:02:13 51°14.363 2°51.229 18.8988 0.070749 0.358781 -2.871232
2007-05-08 08:02:18 51°14.361 2°51.221 18.8977 0.070749 0.358787 -2.871232
2007-05-08 08:02:23 51°14.359 2°51.213 18.9043 0.070749 0.358787 -2.871232
2007-05-08 08:02:28 51°14.357 2°51.206 18.905 0.070749 0.358787 -2.871232
2007-05-08 08:02:33 51°14.356 2°51.198 18.906 0.070749 0.358787 -2.871232
2007-05-08 08:02:38 51°14.355 2°51.19 18.9058 0.070749 0.358787 -2.871232
2007-05-08 08:02:43 51°14.353 2°51.181 18.9103 0.070749 0.358787 -2.871232
2007-05-08 08:02:48 51°14.352 2°51.173 18.9137 0.070749 0.358794 -2.871232
2007-05-08 08:02:53 51°14.352 2°51.164 18.9145 0.070749 0.358794 -2.871232
2007-05-08 08:02:58 51°14.352 2°51.155 18.9168 0.070749 0.358787 -2.871232
2007-05-08 08:03:03 51°14.351 2°51.147 18.923 0.070749 0.358787 -2.871232
2007-05-08 08:03:08 51°14.351 2°51.138 18.9259 0.070749 0.358794 -2.871232
2007-05-08 08:03:13 51°14.351 2°51.13 18.9254 0.070749 0.358794 -2.871232
2007-05-08 08:03:18 51°14.351 2°51.121 18.9288 0.070749 0.3588 -2.871232
2007-05-08 08:03:23 51°14.351 2°51.113 18.9293 0.070749 0.358807 -2.871232
2007-05-08 08:03:28 51°14.351 2°51.105 18.9339 0.070749 0.358807 -2.871232
2007-05-08 08:03:33 51°14.351 2°51.096 18.9364 0.070749 0.358813 -2.871232
2007-05-08 08:03:38 51°14.351 2°51.088 18.9375 0.070749 0.358826 -2.871232
2007-05-08 08:03:43 51°14.351 2°51.081 18.9387 0.070749 0.358826 -2.871232
2007-05-08 08:03:48 51°14.351 2°51.073 18.939 0.070749 0.358826 -2.871232
2007-05-08 08:03:53 51°14.35 2°51.066 18.9412 0.070749 0.358832 -2.871232
2007-05-08 08:03:58 51°14.35 2°51.059 18.9449 0.070749 0.358832 -2.871232
2007-05-08 08:04:03 51°14.349 2°51.053 18.9507 0.070749 0.358826 -2.871232
2007-05-08 08:04:08 51°14.348 2°51.047 18.9514 0.070749 0.358832 -2.871232
2007-05-08 08:04:13 51°14.348 2°51.041 18.9519 0.070749 0.358832 -2.871232
2007-05-08 08:04:18 51°14.346 2°51.035 18.9543 0.070749 0.358832 -2.871232
2007-05-08 08:04:23 51°14.345 2°51.029 18.9583 0.070749 0.358839 -2.871232
2007-05-08 08:04:28 51°14.344 2°51.023 18.9605 0.070749 0.358832 -2.871232
2007-05-08 08:04:33 51°14.343 2°51.017 18.9617 0.070749 0.358839 -2.871232
2007-05-08 08:04:38 51°14.341 2°51.01 18.9633 0.070749 0.358839 -2.871232
2007-05-08 08:04:43 51°14.339 2°51.004 18.9644 0.070749 0.358839 -2.871232
2007-05-08 08:04:48 51°14.337 2°50.997 18.9619 0.070749 0.358845 -2.871232
2007-05-08 08:04:53 51°14.335 2°50.991 18.9718 0.070749 0.358845 -2.871232
2007-05-08 08:04:58 51°14.333 2°50.985 18.9718 0.070749 0.358858 -2.871232
2007-05-08 08:05:03 51°14.331 2°50.979 18.9708 0.070749 0.358852 -2.871232
2007-05-08 08:05:08 51°14.328 2°50.972 18.9747 0.070749 0.358858 -2.871232
2007-05-08 08:05:13 51°14.325 2°50.965 18.9794 0.070749 0.358858 -2.871232
2007-05-08 08:05:18 51°14.323 2°50.958 18.9826 0.070749 0.358858 -2.871232
2007-05-08 08:05:23 51°14.32 2°50.952 18.9832 0.070749 0.358864 -2.871232
2007-05-08 08:05:28 51°14.318 2°50.945 18.9841 0.070749 0.358858 -2.871232
2007-05-08 08:05:33 51°14.316 2°50.937 18.9851 0.070749 0.358858 -2.871232
2007-05-08 08:05:38 51°14.313 2°50.93 18.9912 0.070749 0.358864 -2.871232
2007-05-08 08:05:43 51°14.311 2°50.922 18.9937 0.070749 0.358864 -2.871232
2007-05-08 08:05:48 51°14.309 2°50.915 18.9962 0.070749 0.358864 -2.871232
2007-05-08 08:05:53 51°14.307 2°50.908 18.988 0.070749 0.358864 -2.871232
2007-05-08 08:05:58 51°14.304 2°50.901 18.9963 0.070749 0.358871 -2.871232
2007-05-08 08:06:03 51°14.302 2°50.893 19.0025 0.070749 0.358871 -2.871232
2007-05-08 08:06:08 51°14.301 2°50.886 19.0042 0.070749 0.358871 -2.871232
2007-05-08 08:06:13 51°14.299 2°50.879 19.0065 0.070749 0.358871 -2.871232
2007-05-08 08:06:18 51°14.298 2°50.871 19.007 0.070749 0.358877 -2.871232
2007-05-08 08:06:23 51°14.296 2°50.863 19.0096 0.070749 0.358877 -2.871232
2007-05-08 08:06:28 51°14.295 2°50.855 19.0099 0.070749 0.358884 -2.871232
2007-05-08 08:06:33 51°14.294 2°50.847 19.0118 0.070749 0.35889 -2.871232
2007-05-08 08:06:38 51°14.293 2°50.839 19.0076 0.070749 0.35889 -2.871232
2007-05-08 08:06:43 51°14.292 2°50.831 19.0132 0.070749 0.35889 -2.871232
2007-05-08 08:06:48 51°14.292 2°50.823 19.0201 0.070749 0.35889 -2.871232
2007-05-08 08:06:53 51°14.291 2°50.816 19.021 0.070749 0.358896 -2.871232
2007-05-08 08:06:58 51°14.291 2°50.808 19.0189 0.070749 0.358903 -2.871232
2007-05-08 08:07:03 51°14.29 2°50.8 19.0254 0.070749 0.358909 -2.871232
2007-05-08 08:07:08 51°14.29 2°50.791 19.0268 0.070749 0.358909 -2.871232
2007-05-08 08:07:13 51°14.289 2°50.783 19.0266 0.070749 0.358909 -2.871232
2007-05-08 08:07:18 51°14.288 2°50.775 19.0285 0.070749 0.358916 -2.871232
2007-05-08 08:07:23 51°14.287 2°50.766 19.0297 0.070749 0.358916 -2.871232
2007-05-08 08:07:28 51°14.286 2°50.758 19.03 0.070749 0.358922 -2.871232
2007-05-08 08:07:33 51°14.285 2°50.75 19.0409 0.070749 0.358922 -2.871232
2007-05-08 08:07:38 51°14.284 2°50.742 19.0373 0.070749 0.358929 -2.871232
2007-05-08 08:07:43 51°14.283 2°50.735 19.044 0.070749 0.358929 -2.871232
2007-05-08 08:07:48 51°14.281 2°50.727 19.0446 0.070749 0.358935 -2.871232
2007-05-08 08:07:53 51°14.28 2°50.721 19.0451 0.070749 0.358935 -2.871232
2007-05-08 08:07:58 51°14.278 2°50.714 19.0436 0.070749 0.358941 -2.871232
2007-05-08 08:08:03 51°14.276 2°50.707 19.0513 0.070749 0.358941 -2.871232
2007-05-08 08:08:08 51°14.274 2°50.701 19.0525 0.070749 0.358948 -2.871232
2007-05-08 08:08:13 51°14.272 2°50.695 19.0485 0.070749 0.358948 -2.871232
2007-05-08 08:08:18 51°14.269 2°50.689 19.0512 0.070749 0.358948 -2.871232
2007-05-08 08:08:23 51°14.267 2°50.683 19.0604 0.070749 0.358948 -2.871232
2007-05-08 08:08:28 51°14.264 2°50.678 19.062 0.070749 0.358961 -2.871232
2007-05-08 08:08:33 51°14.261 2°50.672 19.0656 0.070749 0.358954 -2.871232
2007-05-08 08:08:38 51°14.259 2°50.666 19.0649 0.070749 0.358948 -2.871232
2007-05-08 08:08:43 51°14.256 2°50.661 19.0628 0.070749 0.358948 -2.871232
2007-05-08 08:08:48 51°14.253 2°50.655 19.0678 0.070749 0.358948 -2.871232
2007-05-08 08:08:53 51°14.25 2°50.649 19.0657 0.070749 0.358954 -2.871232
2007-05-08 08:08:58 51°14.248 2°50.644 19.0749 0.070749 0.358954 -2.871232
2007-05-08 08:09:03 51°14.245 2°50.638 19.0783 0.070749 0.358954 -2.871232
2007-05-08 08:09:08 51°14.242 2°50.633 19.0792 0.070749 0.358961 -2.871232
2007-05-08 08:09:13 51°14.24 2°50.628 19.0791 0.070749 0.358961 -2.871232
2007-05-08 08:09:18 51°14.237 2°50.623 19.0806 0.070749 0.358967 -2.871232
2007-05-08 08:09:23 51°14.235 2°50.617 19.0836 0.070749 0.358967 -2.871232
2007-05-08 08:09:28 51°14.232 2°50.612 19.0869 0.070749 0.358961 -2.871232
2007-05-08 08:09:33 51°14.23 2°50.607 19.0862 0.070749 0.358961 -2.871232
2007-05-08 08:09:38 51°14.227 2°50.602 19.0904 0.070749 0.358967 -2.871232
2007-05-08 08:09:43 51°14.225 2°50.597 19.0859 0.070749 0.358967 -2.871232
2007-05-08 08:09:48 51°14.223 2°50.592 19.0889 0.070749 0.358967 -2.871232
2007-05-08 08:09:53 51°14.221 2°50.586 19.0935 0.070749 0.358967 -2.871232
2007-05-08 08:09:58 51°14.218 2°50.58 19.0991 0.070749 0.358974 -2.871232
2007-05-08 08:10:03 51°14.216 2°50.575 19.0973 0.070749 0.358974 -2.871232
2007-05-08 08:10:08 51°14.214 2°50.569 19.0989 0.070749 0.35898 -2.871232
2007-05-08 08:10:13 51°14.212 2°50.563 19.1076 0.070749 0.35898 -2.871232
2007-05-08 08:10:18 51°14.209 2°50.557 19.1024 0.070749 0.35898 -2.871232
2007-05-08 08:10:23 51°14.207 2°50.551 19.1103 0.070749 0.35898 -2.871232
2007-05-08 08:10:28 51°14.205 2°50.545 19.1109 0.070749 0.358986 -2.871232
2007-05-08 08:10:33 51°14.202 2°50.538 19.1162 0.070749 0.35898 -2.871232
2007-05-08 08:10:38 51°14.2 2°50.532 19.1127 0.070646 0.358455 -2.871232
2007-05-08 08:10:43 51°14.198 2°50.526 19.1183 0.070646 0.358455 -2.871232
2007-05-08 08:10:48 51°14.196 2°50.519 19.124 0.070646 0.358455 -2.871232
2007-05-08 08:10:53 51°14.195 2°50.513 19.1262 0.070749 0.358999 -2.871232
2007-05-08 08:10:58 51°14.193 2°50.506 19.1217 0.070749 0.358999 -2.871232
2007-05-08 08:11:03 51°14.191 2°50.5 19.122 0.070749 0.359006 -2.871232
2007-05-08 08:11:08 51°14.189 2°50.493 19.1229 0.070749 0.359006 -2.871232
2007-05-08 08:11:13 51°14.187 2°50.486 19.1253 0.070749 0.359006 -2.871232
2007-05-08 08:11:18 51°14.185 2°50.479 19.1361 0.070749 0.359012 -2.871232
2007-05-08 08:11:23 51°14.183 2°50.473 19.1374 0.070749 0.359019 -2.871232
2007-05-08 08:11:28 51°14.182 2°50.467 19.1347 0.070749 0.359012 -2.871232
2007-05-08 08:11:33 51°14.18 2°50.461 19.1398 0.070749 0.359019 -2.871232
2007-05-08 08:11:38 51°14.178 2°50.454 19.1411 0.070749 0.359025 -2.871232
2007-05-08 08:11:43 51°14.176 2°50.448 19.1443 0.070749 0.359025 -2.871232
2007-05-08 08:11:48 51°14.175 2°50.441 19.1461 0.070749 0.359019 -2.871232
2007-05-08 08:11:53 51°14.172 2°50.434 19.1475 0.070646 0.358487 -2.871232
2007-05-08 08:11:58 51°14.171 2°50.428 19.1465 0.070749 0.359031 -2.871232
2007-05-08 08:12:03 51°14.169 2°50.421 19.1526 0.070749 0.359031 -2.871232
2007-05-08 08:12:08 51°14.166 2°50.414 19.1526 0.070749 0.359031 -2.871232
2007-05-08 08:12:13 51°14.165 2°50.407 19.159 0.070749 0.359031 -2.871232
2007-05-08 08:12:18 51°14.162 2°50.401 19.159 0.070749 0.359031 -2.871232
2007-05-08 08:12:23 51°14.16 2°50.394 19.1527 0.070749 0.359038 -2.871232
2007-05-08 08:12:28 51°14.158 2°50.387 19.1584 0.070749 0.359044 -2.871232
2007-05-08 08:12:33 51°14.156 2°50.38 19.1609 0.070749 0.359044 -2.871232
2007-05-08 08:12:38 51°14.154 2°50.373 19.1647 0.070749 0.359044 -2.871232
2007-05-08 08:12:43 51°14.152 2°50.366 19.1626 0.070749 0.359044 -2.871232
2007-05-08 08:12:48 51°14.149 2°50.36 19.1618 0.070749 0.359044 -2.871232
2007-05-08 08:12:53 51°14.147 2°50.352 19.1695 0.070749 0.359051 -2.871232
2007-05-08 08:12:58 51°14.145 2°50.346 19.1734 0.070749 0.359057 -2.871232
2007-05-08 08:13:03 51°14.142 2°50.339 19.1738 0.070749 0.359057 -2.871232
2007-05-08 08:13:08 51°14.139 2°50.332 19.1761 0.070646 0.358519 -2.871232
2007-05-08 08:13:13 51°14.137 2°50.326 19.1739 0.070646 0.358519 -2.871232
2007-05-08 08:13:18 51°14.134 2°50.319 19.1781 0.070749 0.359057 -2.871232
2007-05-08 08:13:23 51°14.131 2°50.313 19.1785 0.070749 0.359064 -2.871232
2007-05-08 08:13:28 51°14.128 2°50.307 19.1851 0.070749 0.359064 -2.871232
2007-05-08 08:13:33 51°14.125 2°50.301 19.1878 0.070646 0.358526 -2.871232
2007-05-08 08:13:38 51°14.122 2°50.295 19.193 0.070646 0.358532 -2.871232
2007-05-08 08:13:43 51°14.12 2°50.289 19.1856 0.070646 0.358532 -2.871232
2007-05-08 08:13:48 51°14.117 2°50.284 19.1859 0.070749 0.35907 -2.871232
2007-05-08 08:13:53 51°14.114 2°50.278 19.1941 0.070749 0.359077 -2.871232
2007-05-08 08:13:58 51°14.111 2°50.272 19.1897 0.070646 0.358532 -2.871232
2007-05-08 08:14:03 51°14.108 2°50.266 19.1963 0.070646 0.358538 -2.871232
2007-05-08 08:14:08 51°14.105 2°50.261 19.2032 0.070749 0.35907 -2.871232
2007-05-08 08:14:13 51°14.103 2°50.256 19.2039 0.070749 0.35907 -2.871232
2007-05-08 08:14:18 51°14.1 2°50.252 19.2051 0.070646 0.358538 -2.871232
2007-05-08 08:14:23 51°14.097 2°50.247 19.2016 0.070646 0.358545 -2.871232
2007-05-08 08:14:28 51°14.094 2°50.242 19.2096 0.070646 0.358551 -2.871232
2007-05-08 08:14:33 51°14.092 2°50.237 19.2137 0.070646 0.358545 -2.871232
2007-05-08 08:14:38 51°14.089 2°50.231 19.2113 0.070646 0.358545 -2.871232
2007-05-08 08:14:43 51°14.087 2°50.225 19.218 0.070646 0.358545 -2.871232
2007-05-08 08:14:48 51°14.084 2°50.219 19.2156 0.070646 0.358545 -2.871232
2007-05-08 08:14:53 51°14.081 2°50.213 19.2118 0.070749 0.359083 -2.871232
2007-05-08 08:14:58 51°14.079 2°50.206 19.219 0.070749 0.359089 -2.871232
2007-05-08 08:15:03 51°14.076 2°50.2 19.2218 0.070749 0.359083 -2.871232
2007-05-08 08:15:08 51°14.073 2°50.194 19.2216 0.070646 0.358558 -2.871232
2007-05-08 08:15:13 51°14.071 2°50.188 19.2239 0.070646 0.358558 -2.871232
2007-05-08 08:15:18 51°14.068 2°50.182 19.2271 0.070749 0.359096 -2.871232
2007-05-08 08:15:23 51°14.066 2°50.175 19.2321 0.070646 0.358558 -2.871232
2007-05-08 08:15:28 51°14.063 2°50.169 19.235 0.070646 0.358564 -2.871232
2007-05-08 08:15:33 51°14.061 2°50.162 19.2378 0.070646 0.358571 -2.871232
2007-05-08 08:15:38 51°14.058 2°50.155 19.2414 0.070749 0.359109 -2.871232
2007-05-08 08:15:43 51°14.056 2°50.148 19.2458 0.070749 0.359109 -2.871232
2007-05-08 08:15:48 51°14.054 2°50.14 19.2469 0.070749 0.359109 -2.871232
2007-05-08 08:15:53 51°14.052 2°50.133 19.251 0.070749 0.359109 -2.871232
2007-05-08 08:15:58 51°14.049 2°50.125 19.2525 0.070646 0.358577 -2.871232
2007-05-08 08:16:03 51°14.047 2°50.118 19.2499 0.070646 0.358577 -2.871232
2007-05-08 08:16:08 51°14.045 2°50.11 19.2515 0.070646 0.358577 -2.871232
2007-05-08 08:16:13 51°14.043 2°50.102 19.2557 0.070646 0.358577 -2.871232
2007-05-08 08:16:18 51°14.041 2°50.095 19.2569 0.070646 0.358577 -2.871232
2007-05-08 08:16:23 51°14.039 2°50.087 19.2583 0.070646 0.358583 -2.871232
2007-05-08 08:16:28 51°14.037 2°50.079 19.2596 0.070646 0.358583 -2.871232
2007-05-08 08:16:33 51°14.034 2°50.071 19.263 0.070646 0.35859 -2.871232
2007-05-08 08:16:38 51°14.032 2°50.064 19.2593 0.070646 0.358596 -2.871232
2007-05-08 08:16:43 51°14.031 2°50.056 19.2638 0.070646 0.358596 -2.871232
2007-05-08 08:16:48 51°14.028 2°50.048 19.2589 0.070646 0.358596 -2.871232
2007-05-08 08:16:53 51°14.027 2°50.04 19.2663 0.070646 0.358596 -2.871232
2007-05-08 08:16:58 51°14.024 2°50.032 19.2649 0.070646 0.358603 -2.871232
2007-05-08 08:17:03 51°14.022 2°50.024 19.2734 0.070749 0.359141 -2.871232
2007-05-08 08:17:08 51°14.02 2°50.016 19.2754 0.070646 0.358603 -2.871232
2007-05-08 08:17:13 51°14.018 2°50.008 19.2758 0.070646 0.358603 -2.871232
2007-05-08 08:17:18 51°14.015 2°50 19.2714 0.070646 0.358603 -2.871232
2007-05-08 08:17:23 51°14.013 2°49.992 19.2824 0.070646 0.358603 -2.871232
2007-05-08 08:17:28 51°14.011 2°49.984 19.2824 0.070646 0.358609 -2.871232
2007-05-08 08:17:33 51°14.008 2°49.976 19.2768 0.070646 0.358609 -2.871232
2007-05-08 08:17:38 51°14.006 2°49.968 19.2818 0.070646 0.358616 -2.871232
2007-05-08 08:17:43 51°14.004 2°49.96 19.289 0.070646 0.358616 -2.871232
2007-05-08 08:17:48 51°14.002 2°49.953 19.2901 0.070646 0.358616 -2.871232
2007-05-08 08:17:53 51°14 2°49.945 19.2875 0.070646 0.358616 -2.871232
2007-05-08 08:17:58 51°13.998 2°49.937 19.2886 0.070646 0.358622 -2.871232
2007-05-08 08:18:03 51°13.995 2°49.93 19.2977 0.070646 0.358622 -2.871232
2007-05-08 08:18:08 51°13.993 2°49.924 19.2989 0.070646 0.358628 -2.871232
2007-05-08 08:18:13 51°13.99 2°49.917 19.2946 0.070646 0.358628 -2.871232
2007-05-08 08:18:18 51°13.988 2°49.911 19.2948 0.070646 0.358635 -2.871232
2007-05-08 08:18:23 51°13.986 2°49.905 19.2978 0.070646 0.358635 -2.871232
2007-05-08 08:18:28 51°13.983 2°49.898 19.3052 0.070646 0.358635 -2.871232
2007-05-08 08:18:33 51°13.981 2°49.892 19.3069 0.070646 0.358641 -2.871232
2007-05-08 08:18:38 51°13.979 2°49.886 19.3109 0.070646 0.358635 -2.871232
2007-05-08 08:18:43 51°13.977 2°49.88 19.3102 0.070646 0.358635 -2.871232
2007-05-08 08:18:48 51°13.974 2°49.874 19.3101 0.070646 0.358641 -2.871232
2007-05-08 08:18:53 51°13.972 2°49.869 19.3198 0.070749 0.359179 -2.871232
2007-05-08 08:18:58 51°13.97 2°49.863 19.3171 0.070749 0.359179 -2.871232
2007-05-08 08:19:03 51°13.967 2°49.857 19.3207 0.070646 0.358641 -2.871232
2007-05-08 08:19:08 51°13.965 2°49.852 19.3158 0.070646 0.358648 -2.871232
2007-05-08 08:19:13 51°13.962 2°49.846 19.3194 0.070646 0.358648 -2.871232
2007-05-08 08:19:18 51°13.96 2°49.841 19.322 0.070646 0.358648 -2.871232
2007-05-08 08:19:23 51°13.957 2°49.835 19.3218 0.070646 0.358648 -2.871232
2007-05-08 08:19:28 51°13.955 2°49.83 19.3302 0.070646 0.358654 -2.871232
2007-05-08 08:19:33 51°13.952 2°49.824 19.3308 0.070646 0.358661 -2.871232
2007-05-08 08:19:38 51°13.95 2°49.819 19.3298 0.070646 0.358654 -2.871232
2007-05-08 08:19:43 51°13.947 2°49.814 19.3299 0.070646 0.358654 -2.871232
2007-05-08 08:19:48 51°13.944 2°49.808 19.332 0.070646 0.358654 -2.871232
2007-05-08 08:19:53 51°13.941 2°49.802 19.3337 0.070646 0.358661 -2.871232
2007-05-08 08:19:58 51°13.938 2°49.797 19.3431 0.070749 0.359199 -2.871232
2007-05-08 08:20:03 51°13.936 2°49.791 19.3444 0.070646 0.358667 -2.871232
2007-05-08 08:20:08 51°13.933 2°49.785 19.3451 0.070646 0.358667 -2.871232
2007-05-08 08:20:13 51°13.93 2°49.779 19.3503 0.070646 0.358667 -2.871232
2007-05-08 08:20:18 51°13.927 2°49.774 19.3517 0.070646 0.358673 -2.871232
2007-05-08 08:20:23 51°13.925 2°49.769 19.3544 0.070646 0.358673 -2.871232
2007-05-08 08:20:28 51°13.922 2°49.764 19.3447 0.070646 0.358673 -2.871232
2007-05-08 08:20:33 51°13.919 2°49.759 19.3488 0.070646 0.35868 -2.871232
2007-05-08 08:20:38 51°13.916 2°49.754 19.3599 0.070646 0.358673 -2.871232
2007-05-08 08:20:43 51°13.914 2°49.749 19.3639 0.070646 0.358673 -2.871232
2007-05-08 08:20:48 51°13.911 2°49.744 19.36 0.070646 0.35868 -2.871232
2007-05-08 08:20:53 51°13.908 2°49.739 19.3606 0.070646 0.358686 -2.871232
2007-05-08 08:20:58 51°13.906 2°49.733 19.3647 0.070646 0.35868 -2.871232
2007-05-08 08:21:03 51°13.903 2°49.728 19.3646 0.070646 0.358686 -2.871232
2007-05-08 08:21:08 51°13.901 2°49.722 19.365 0.070646 0.35868 -2.871232
2007-05-08 08:21:13 51°13.899 2°49.716 19.3721 0.070646 0.35868 -2.871232
2007-05-08 08:21:18 51°13.896 2°49.71 19.3743 0.070646 0.358686 -2.871232
2007-05-08 08:21:23 51°13.894 2°49.704 19.3736 0.070646 0.358686 -2.871232
2007-05-08 08:21:28 51°13.892 2°49.698 19.3802 0.070646 0.358686 -2.871232
2007-05-08 08:21:33 51°13.889 2°49.691 19.3814 0.070646 0.358686 -2.871232
2007-05-08 08:21:38 51°13.887 2°49.685 19.3809 0.070646 0.358693 -2.871232
2007-05-08 08:21:43 51°13.885 2°49.679 19.3847 0.070646 0.358693 -2.871232
2007-05-08 08:21:48 51°13.883 2°49.672 19.3863 0.070646 0.358699 -2.871232
2007-05-08 08:21:53 51°13.881 2°49.666 19.3864 0.070646 0.358699 -2.871232
2007-05-08 08:21:58 51°13.878 2°49.659 19.3899 0.070646 0.358706 -2.871232
2007-05-08 08:22:03 51°13.876 2°49.652 19.392 0.070646 0.358706 -2.871232
2007-05-08 08:22:08 51°13.874 2°49.645 19.3929 0.070646 0.358712 -2.871232
2007-05-08 08:22:13 51°13.872 2°49.638 19.3934 0.070646 0.358712 -2.871232
2007-05-08 08:22:18 51°13.871 2°49.632 19.396 0.070646 0.358712 -2.871232
2007-05-08 08:22:23 51°13.869 2°49.625 19.3967 0.070646 0.358712 -2.871232
2007-05-08 08:22:28 51°13.867 2°49.618 19.3984 0.070646 0.358718 -2.871232
2007-05-08 08:22:33 51°13.865 2°49.611 19.3969 0.070646 0.358718 -2.871232
2007-05-08 08:22:38 51°13.863 2°49.604 19.4013 0.070646 0.358718 -2.871232
2007-05-08 08:22:43 51°13.861 2°49.596 19.4096 0.070646 0.358718 -2.871232
2007-05-08 08:22:48 51°13.86 2°49.589 19.4083 0.070646 0.358725 -2.871232
2007-05-08 08:22:53 51°13.858 2°49.582 19.4125 0.070646 0.358731 -2.871232
2007-05-08 08:22:58 51°13.856 2°49.575 19.4169 0.070646 0.358731 -2.871232
2007-05-08 08:23:03 51°13.855 2°49.567 19.4168 0.070646 0.358731 -2.871232
2007-05-08 08:23:08 51°13.853 2°49.56 19.4204 0.070646 0.358731 -2.871232
2007-05-08 08:23:13 51°13.852 2°49.552 19.4241 0.070646 0.358731 -2.871232
2007-05-08 08:23:18 51°13.851 2°49.544 19.4246 0.070646 0.358738 -2.871232
2007-05-08 08:23:23 51°13.85 2°49.536 19.4271 0.070646 0.358744 -2.871232
2007-05-08 08:23:28 51°13.848 2°49.529 19.4238 0.070646 0.358744 -2.871232
2007-05-08 08:23:33 51°13.848 2°49.521 19.4276 0.070646 0.358744 -2.871232
2007-05-08 08:23:38 51°13.846 2°49.513 19.4271 0.070646 0.358751 -2.871232
2007-05-08 08:23:43 51°13.846 2°49.505 19.4285 0.070646 0.358751 -2.871232
2007-05-08 08:23:48 51°13.845 2°49.497 19.4347 0.070646 0.358751 -2.871232
2007-05-08 08:23:53 51°13.844 2°49.49 19.4366 0.070646 0.358757 -2.871232
2007-05-08 08:23:58 51°13.843 2°49.482 19.4365 0.070646 0.358757 -2.871232
2007-05-08 08:24:03 51°13.843 2°49.475 19.4394 0.070646 0.358757 -2.871232
2007-05-08 08:24:08 51°13.842 2°49.467 19.4417 0.070646 0.358757 -2.871232
2007-05-08 08:24:13 51°13.842 2°49.459 19.4449 0.070646 0.358757 -2.871232
2007-05-08 08:24:18 51°13.842 2°49.451 19.4455 0.070646 0.358763 -2.871232
2007-05-08 08:24:23 51°13.841 2°49.444 19.4463 0.070646 0.358763 -2.871232
2007-05-08 08:24:28 51°13.841 2°49.436 19.4488 0.070646 0.358763 -2.871232
2007-05-08 08:24:33 51°13.841 2°49.429 19.4466 0.070646 0.358776 -2.871232
2007-05-08 08:24:38 51°13.84 2°49.421 19.448 0.070646 0.358776 -2.871232
2007-05-08 08:24:43 51°13.84 2°49.413 19.4554 0.070646 0.358776 -2.871232
2007-05-08 08:24:48 51°13.839 2°49.406 19.4547 0.070646 0.358776 -2.871232
2007-05-08 08:24:53 51°13.839 2°49.398 19.4519 0.070646 0.358776 -2.871232
2007-05-08 08:24:58 51°13.839 2°49.39 19.4515 0.070646 0.358776 -2.871232
2007-05-08 08:25:03 51°13.838 2°49.382 19.4569 0.070646 0.358783 -2.871232
2007-05-08 08:25:07 51°13.838 2°49.376 19.4532 0.070646 0.358789 -2.871232
2007-05-08 08:25:13 51°13.837 2°49.367 19.461 0.070646 0.358789 -2.871232
2007-05-08 08:25:18 51°13.837 2°49.359 19.4663 0.070646 0.358789 -2.871232
2007-05-08 08:25:23 51°13.836 2°49.352 19.4695 0.070646 0.358789 -2.871232
2007-05-08 08:25:28 51°13.836 2°49.344 19.464 0.070646 0.358789 -2.871232
2007-05-08 08:25:33 51°13.835 2°49.337 19.4673 0.070646 0.358802 -2.871232
2007-05-08 08:25:38 51°13.835 2°49.33 19.4641 0.070646 0.358802 -2.871232
2007-05-08 08:25:43 51°13.834 2°49.323 19.4668 0.070646 0.358802 -2.871232
2007-05-08 08:25:48 51°13.833 2°49.315 19.4704 0.070646 0.358802 -2.871232
2007-05-08 08:25:52 51°13.833 2°49.31 19.4778 0.070646 0.358802 -2.871232
2007-05-08 08:25:58 51°13.832 2°49.301 19.4793 0.070646 0.358802 -2.871232
2007-05-08 08:26:03 51°13.83 2°49.294 19.4804 0.070646 0.358808 -2.871232
2007-05-08 08:26:08 51°13.829 2°49.287 19.4762 0.070646 0.358808 -2.871232
2007-05-08 08:26:13 51°13.828 2°49.28 19.4822 0.070646 0.358808 -2.871232
2007-05-08 08:26:18 51°13.827 2°49.273 19.4829 0.070646 0.358802 -2.871232
2007-05-08 08:26:23 51°13.825 2°49.266 19.4889 0.070646 0.358815 -2.871232
2007-05-08 08:26:28 51°13.824 2°49.259 19.4882 0.070646 0.358808 -2.871232
2007-05-08 08:26:33 51°13.822 2°49.252 19.4926 0.070646 0.358808 -2.871232
2007-05-08 08:26:38 51°13.82 2°49.245 19.4939 0.070646 0.358808 -2.871232
2007-05-08 08:26:43 51°13.819 2°49.238 19.4981 0.070646 0.358808 -2.871232
2007-05-08 08:26:48 51°13.817 2°49.232 19.4994 0.070646 0.358821 -2.871232
2007-05-08 08:26:53 51°13.815 2°49.226 19.5016 0.070646 0.358828 -2.871232
2007-05-08 08:26:58 51°13.813 2°49.221 19.4977 0.070646 0.358828 -2.871232
2007-05-08 08:27:03 51°13.812 2°49.214 19.5017 0.070646 0.358821 -2.871232
2007-05-08 08:27:08 51°13.809 2°49.209 19.5062 0.070646 0.358828 -2.871232
2007-05-08 08:27:13 51°13.808 2°49.203 19.5079 0.070646 0.358828 -2.871232
2007-05-08 08:27:18 51°13.805 2°49.198 19.5047 0.070646 0.358834 -2.871232
2007-05-08 08:27:23 51°13.804 2°49.192 19.5103 0.070646 0.358834 -2.871232
2007-05-08 08:27:28 51°13.801 2°49.186 19.5104 0.070646 0.358834 -2.871232
2007-05-08 08:27:33 51°13.8 2°49.18 19.5142 0.070646 0.358828 -2.871232
2007-05-08 08:27:38 51°13.798 2°49.174 19.5168 0.070646 0.358834 -2.871232
2007-05-08 08:27:43 51°13.796 2°49.168 19.5145 0.070646 0.358834 -2.871232
2007-05-08 08:27:48 51°13.794 2°49.161 19.515 0.070646 0.358834 -2.871232
2007-05-08 08:27:53 51°13.791 2°49.155 19.5235 0.070646 0.358834 -2.871232
2007-05-08 08:27:58 51°13.79 2°49.148 19.5222 0.070646 0.358834 -2.871232
2007-05-08 08:28:03 51°13.788 2°49.143 19.5218 0.070646 0.358841 -2.871232
2007-05-08 08:28:08 51°13.786 2°49.136 19.5261 0.070646 0.358847 -2.871232
2007-05-08 08:28:13 51°13.784 2°49.13 19.5321 0.070646 0.358847 -2.871232
2007-05-08 08:28:18 51°13.782 2°49.124 19.5343 0.070646 0.358847 -2.871232
2007-05-08 08:28:23 51°13.78 2°49.118 19.529 0.070646 0.358847 -2.871232
2007-05-08 08:28:28 51°13.778 2°49.112 19.5323 0.070646 0.358847 -2.871232
2007-05-08 08:28:33 51°13.776 2°49.105 19.5345 0.070646 0.358854 -2.871232
2007-05-08 08:28:38 51°13.775 2°49.099 19.5403 0.070646 0.358854 -2.871232
2007-05-08 08:28:43 51°13.773 2°49.093 19.5392 0.070646 0.358854 -2.871232
2007-05-08 08:28:48 51°13.771 2°49.087 19.5404 0.070646 0.358866 -2.871232
2007-05-08 08:28:53 51°13.769 2°49.081 19.5455 0.070646 0.35886 -2.871232
2007-05-08 08:28:58 51°13.767 2°49.075 19.5448 0.070646 0.358866 -2.871232
2007-05-08 08:29:03 51°13.766 2°49.068 19.545 0.070646 0.358866 -2.871232
2007-05-08 08:29:08 51°13.764 2°49.062 19.5522 0.070646 0.358873 -2.871232
2007-05-08 08:29:13 51°13.762 2°49.056 19.5514 0.070646 0.358873 -2.871232
2007-05-08 08:29:18 51°13.761 2°49.049 19.5551 0.070646 0.358866 -2.871232
2007-05-08 08:29:23 51°13.759 2°49.042 19.5528 0.070646 0.358873 -2.871232
2007-05-08 08:29:28 51°13.757 2°49.035 19.5593 0.070646 0.358873 -2.871232
2007-05-08 08:29:33 51°13.756 2°49.028 19.5601 0.070646 0.358873 -2.871232
2007-05-08 08:29:38 51°13.754 2°49.021 19.5636 0.070646 0.358879 -2.871232
2007-05-08 08:29:43 51°13.753 2°49.014 19.56 0.070646 0.358879 -2.871232
2007-05-08 08:29:48 51°13.751 2°49.007 19.563 0.070646 0.358886 -2.871232
2007-05-08 08:29:53 51°13.75 2°49 19.5696 0.070646 0.358886 -2.871232
2007-05-08 08:29:58 51°13.749 2°48.993 19.5703 0.070646 0.358892 -2.871232
2007-05-08 08:30:03 51°13.747 2°48.986 19.5718 0.070646 0.358892 -2.871232
2007-05-08 08:30:08 51°13.746 2°48.979 19.5673 0.070543 0.358354 -2.871232
2007-05-08 08:30:13 51°13.745 2°48.972 19.5738 0.070543 0.358354 -2.871232
2007-05-08 08:30:18 51°13.744 2°48.965 19.5735 0.070646 0.358899 -2.871232
2007-05-08 08:30:23 51°13.743 2°48.959 19.5755 0.070646 0.358905 -2.871232
2007-05-08 08:30:28 51°13.742 2°48.952 19.5789 0.070646 0.358911 -2.871232
2007-05-08 08:30:33 51°13.741 2°48.945 19.576 0.070646 0.358911 -2.871232
2007-05-08 08:30:38 51°13.74 2°48.938 19.5804 0.070646 0.358918 -2.871232
2007-05-08 08:30:43 51°13.739 2°48.931 19.5786 0.070646 0.358918 -2.871232
2007-05-08 08:30:48 51°13.739 2°48.924 19.5829 0.070646 0.358918 -2.871232
2007-05-08 08:30:53 51°13.738 2°48.917 19.582 0.070646 0.358918 -2.871232
2007-05-08 08:30:58 51°13.737 2°48.911 19.5891 0.070646 0.358924 -2.871232
2007-05-08 08:31:03 51°13.737 2°48.904 19.5909 0.070646 0.358924 -2.871232
2007-05-08 08:31:08 51°13.737 2°48.898 19.5964 0.070646 0.358924 -2.871232
2007-05-08 08:31:13 51°13.737 2°48.891 19.5963 0.070646 0.358924 -2.871232
2007-05-08 08:31:18 51°13.736 2°48.885 19.5919 0.070646 0.358931 -2.871232
2007-05-08 08:31:23 51°13.737 2°48.879 19.5951 0.070646 0.358937 -2.871232
2007-05-08 08:31:28 51°13.737 2°48.873 19.5984 0.070646 0.35895 -2.871232
2007-05-08 08:31:33 51°13.737 2°48.867 19.6023 0.070646 0.35895 -2.871232
2007-05-08 08:31:38 51°13.738 2°48.86 19.6017 0.070646 0.358944 -2.871232
2007-05-08 08:31:43 51°13.739 2°48.853 19.6084 0.070646 0.358944 -2.871232
2007-05-08 08:31:48 51°13.74 2°48.846 19.6061 0.070646 0.35895 -2.871232
2007-05-08 08:31:53 51°13.742 2°48.84 19.6105 0.070646 0.35895 -2.871232
2007-05-08 08:31:58 51°13.744 2°48.833 19.6111 0.070646 0.358957 -2.871232
2007-05-08 08:32:03 51°13.746 2°48.826 19.611 0.070646 0.358957 -2.871232
2007-05-08 08:32:08 51°13.748 2°48.819 19.6104 0.070646 0.358963 -2.871232
2007-05-08 08:32:13 51°13.75 2°48.812 19.6125 0.070646 0.358963 -2.871232
2007-05-08 08:32:18 51°13.753 2°48.806 19.6183 0.070646 0.358963 -2.871232
2007-05-08 08:32:23 51°13.757 2°48.8 19.6187 0.070646 0.358963 -2.871232
2007-05-08 08:32:28 51°13.761 2°48.795 19.6176 0.070646 0.358963 -2.871232
2007-05-08 08:32:33 51°13.764 2°48.791 19.6168 0.070646 0.358969 -2.871232
2007-05-08 08:32:38 51°13.769 2°48.786 19.6238 0.070646 0.358969 -2.871232
2007-05-08 08:32:43 51°13.773 2°48.783 19.625 0.070646 0.358969 -2.871232
2007-05-08 08:32:48 51°13.777 2°48.781 19.6282 0.070646 0.358976 -2.871232
2007-05-08 08:32:53 51°13.782 2°48.779 19.6239 0.070543 0.358457 -2.871232
2007-05-08 08:32:58 51°13.787 2°48.779 19.6256 0.070646 0.358995 -2.871232
2007-05-08 08:33:03 51°13.792 2°48.779 19.6294 0.070646 0.358995 -2.871232
2007-05-08 08:33:08 51°13.797 2°48.779 19.6351 0.070543 0.358469 -2.871232
2007-05-08 08:33:13 51°13.802 2°48.78 19.6375 0.070543 0.358469 -2.871232
2007-05-08 08:33:18 51°13.806 2°48.78 19.6334 0.070646 0.359021 -2.871232
2007-05-08 08:33:23 51°13.811 2°48.782 19.6344 0.070646 0.359021 -2.871232
2007-05-08 08:33:28 51°13.816 2°48.785 19.634 0.070646 0.359015 -2.871232
2007-05-08 08:33:33 51°13.82 2°48.789 19.6395 0.070646 0.359008 -2.871232
2007-05-08 08:33:38 51°13.824 2°48.793 19.6423 0.070646 0.359008 -2.871232
2007-05-08 08:33:43 51°13.828 2°48.798 19.6414 0.070646 0.359008 -2.871232
2007-05-08 08:33:48 51°13.832 2°48.803 19.6414 0.070646 0.359015 -2.871232
2007-05-08 08:33:53 51°13.835 2°48.809 19.6426 0.070646 0.359008 -2.871232
2007-05-08 08:33:58 51°13.838 2°48.815 19.6453 0.070646 0.359015 -2.871232
2007-05-08 08:34:03 51°13.841 2°48.821 19.6494 0.070646 0.359015 -2.871232
2007-05-08 08:34:08 51°13.844 2°48.828 19.6518 0.070646 0.359015 -2.871232
2007-05-08 08:34:13 51°13.845 2°48.836 19.6535 0.070646 0.359015 -2.871232
2007-05-08 08:34:18 51°13.846 2°48.843 19.6553 0.070646 0.359021 -2.871232
2007-05-08 08:34:23 51°13.847 2°48.851 19.6537 0.070543 0.358482 -2.871232
2007-05-08 08:34:28 51°13.847 2°48.859 19.6571 0.070646 0.359027 -2.871232
2007-05-08 08:34:33 51°13.847 2°48.867 19.6548 0.070646 0.359034 -2.871232
2007-05-08 08:34:38 51°13.845 2°48.875 19.6601 0.070543 0.358502 -2.871232
2007-05-08 08:34:43 51°13.844 2°48.882 19.6618 0.070543 0.358502 -2.871232
2007-05-08 08:34:48 51°13.842 2°48.889 19.6598 0.070646 0.359034 -2.871232
2007-05-08 08:34:53 51°13.84 2°48.896 19.667 0.070543 0.358495 -2.871232
2007-05-08 08:34:58 51°13.837 2°48.903 19.6638 0.070646 0.35904 -2.871232
2007-05-08 08:35:03 51°13.834 2°48.908 19.6664 0.070543 0.358502 -2.871232
2007-05-08 08:35:08 51°13.83 2°48.913 19.674 0.070646 0.35904 -2.871232
2007-05-08 08:35:13 51°13.827 2°48.918 19.6747 0.070646 0.35904 -2.871232
2007-05-08 08:35:18 51°13.823 2°48.923 19.6767 0.070646 0.35904 -2.871232
2007-05-08 08:35:23 51°13.819 2°48.926 19.6793 0.070646 0.35904 -2.871232
2007-05-08 08:35:28 51°13.815 2°48.929 19.6827 0.070543 0.358508 -2.871232
2007-05-08 08:35:33 51°13.811 2°48.931 19.6863 0.070543 0.358502 -2.871232
2007-05-08 08:35:38 51°13.807 2°48.933 19.6868 0.070543 0.358502 -2.871232
2007-05-08 08:35:43 51°13.802 2°48.936 19.6841 0.070543 0.358502 -2.871232
2007-05-08 08:35:48 51°13.798 2°48.936 19.6891 0.070646 0.359047 -2.871232
2007-05-08 08:35:53 51°13.794 2°48.937 19.6855 0.070543 0.358508 -2.871232
2007-05-08 08:35:58 51°13.789 2°48.938 19.689 0.070646 0.359047 -2.871232
2007-05-08 08:36:03 51°13.785 2°48.938 19.6935 0.070543 0.358508 -2.871232
2007-05-08 08:36:08 51°13.781 2°48.936 19.6993 0.070646 0.359047 -2.871232
2007-05-08 08:36:13 51°13.776 2°48.936 19.7007 0.070646 0.359047 -2.871232
2007-05-08 08:36:18 51°13.772 2°48.934 19.7022 0.070543 0.358508 -2.871232
2007-05-08 08:36:23 51°13.768 2°48.933 19.7045 0.070646 0.359047 -2.871232
2007-05-08 08:36:28 51°13.764 2°48.93 19.7029 0.070543 0.358508 -2.871232
2007-05-08 08:36:33 51°13.76 2°48.929 19.7036 0.070543 0.358508 -2.871232
2007-05-08 08:36:38 51°13.756 2°48.925 19.7079 0.070543 0.358508 -2.871232
2007-05-08 08:36:43 51°13.752 2°48.922 19.7106 0.070543 0.358508 -2.871232
2007-05-08 08:36:48 51°13.748 2°48.918 19.7137 0.070543 0.358508 -2.871232
2007-05-08 08:36:53 51°13.745 2°48.914 19.713 0.070543 0.358508 -2.871232
2007-05-08 08:36:58 51°13.742 2°48.91 19.7155 0.070646 0.359053 -2.871232
2007-05-08 08:37:03 51°13.739 2°48.906 19.7183 0.070543 0.358521 -2.871232
2007-05-08 08:37:08 51°13.736 2°48.901 19.7199 0.070543 0.358521 -2.871232
2007-05-08 08:37:13 51°13.733 2°48.897 19.7218 0.070543 0.358521 -2.871232
2007-05-08 08:37:18 51°13.731 2°48.892 19.7233 0.070646 0.35906 -2.871232
2007-05-08 08:37:23 51°13.729 2°48.888 19.7258 0.070646 0.359073 -2.871232
2007-05-08 08:37:28 51°13.726 2°48.883 19.7275 0.070543 0.358553 -2.871232
2007-05-08 08:37:33 51°13.725 2°48.878 19.7306 0.070543 0.358566 -2.871232
2007-05-08 08:37:38 51°13.723 2°48.872 19.7307 0.070543 0.358566 -2.871232
2007-05-08 08:37:43 51°13.722 2°48.865 19.7337 0.070543 0.358566 -2.871232
2007-05-08 08:37:48 51°13.721 2°48.858 19.7364 0.070543 0.358559 -2.871232
2007-05-08 08:37:53 51°13.722 2°48.85 19.7384 0.070543 0.358553 -2.871232
2007-05-08 08:37:58 51°13.722 2°48.843 19.7391 0.070646 0.359079 -2.871232
2007-05-08 08:38:03 51°13.724 2°48.835 19.7426 0.070543 0.358527 -2.871232
2007-05-08 08:38:08 51°13.726 2°48.828 19.7437 0.070543 0.358514 -2.871232
2007-05-08 08:38:13 51°13.729 2°48.822 19.7465 0.070543 0.358514 -2.871232
2007-05-08 08:38:18 51°13.732 2°48.817 19.7473 0.070543 0.358508 -2.871232
2007-05-08 08:38:23 51°13.736 2°48.813 19.7468 0.070646 0.359047 -2.871232
2007-05-08 08:38:28 51°13.74 2°48.81 19.7491 0.070543 0.358527 -2.871232
2007-05-08 08:38:33 51°13.743 2°48.807 19.7521 0.070543 0.35854 -2.871232
2007-05-08 08:38:38 51°13.747 2°48.805 19.7539 0.070543 0.358559 -2.871232
2007-05-08 08:38:43 51°13.75 2°48.804 19.7549 0.070543 0.358559 -2.871232
2007-05-08 08:38:48 51°13.753 2°48.803 19.7553 0.070543 0.358585 -2.871232
2007-05-08 08:38:53 51°13.756 2°48.802 19.7562 0.070543 0.358592 -2.871232
2007-05-08 08:38:58 51°13.759 2°48.801 19.7576 0.070646 0.359131 -2.871232
2007-05-08 08:39:03 51°13.762 2°48.801 19.7593 0.070543 0.358592 -2.871232
2007-05-08 08:39:08 51°13.764 2°48.8 19.7599 0.070543 0.358592 -2.871232
2007-05-08 08:39:13 51°13.767 2°48.799 19.7613 0.070543 0.358592 -2.871232
2007-05-08 08:39:18 51°13.769 2°48.798 19.7632 0.070543 0.358579 -2.871232
2007-05-08 08:39:23 51°13.772 2°48.797 19.7649 0.070543 0.358572 -2.871232
2007-05-08 08:39:28 51°13.774 2°48.796 19.7659 0.070543 0.358572 -2.871232
2007-05-08 08:39:33 51°13.776 2°48.795 19.7678 0.070543 0.358572 -2.871232
2007-05-08 08:39:38 51°13.778 2°48.794 19.7689 0.070543 0.358572 -2.871232
2007-05-08 08:39:43 51°13.779 2°48.793 19.7704 0.070543 0.358572 -2.871232
2007-05-08 08:39:48 51°13.781 2°48.792 19.7721 0.070543 0.358579 -2.871232
2007-05-08 08:39:53 51°13.782 2°48.792 19.7736 0.070543 0.358579 -2.871232
2007-05-08 08:39:58 51°13.784 2°48.792 19.7751 0.070543 0.358585 -2.871232
2007-05-08 08:40:03 51°13.785 2°48.792 19.7775 0.070543 0.358585 -2.871232
2007-05-08 08:40:08 51°13.786 2°48.791 19.7787 0.070543 0.358579 -2.871232
2007-05-08 08:40:13 51°13.787 2°48.792 19.7812 0.070543 0.358579 -2.871232
2007-05-08 08:40:18 51°13.788 2°48.791 19.7824 0.070543 0.358585 -2.871232
2007-05-08 08:40:23 51°13.789 2°48.791 19.7837 0.070543 0.358592 -2.871232
2007-05-08 08:40:28 51°13.79 2°48.791 19.785 0.070543 0.358592 -2.871232
2007-05-08 08:40:33 51°13.791 2°48.791 19.7864 0.070543 0.358592 -2.871232
2007-05-08 08:40:38 51°13.793 2°48.791 19.7877 0.070543 0.358585 -2.871232
2007-05-08 08:40:43 51°13.794 2°48.791 19.7899 0.070543 0.358585 -2.871232
2007-05-08 08:40:48 51°13.795 2°48.791 19.7914 0.070543 0.358585 -2.871232
2007-05-08 08:40:53 51°13.796 2°48.79 19.7932 0.070543 0.358579 -2.871232
2007-05-08 08:40:58 51°13.798 2°48.79 19.7951 0.070543 0.358572 -2.871232
2007-05-08 08:41:03 51°13.8 2°48.789 19.7968 0.070543 0.358572 -2.871232
2007-05-08 08:41:08 51°13.802 2°48.788 19.799 0.070543 0.358572 -2.871232
2007-05-08 08:41:13 51°13.805 2°48.788 19.8002 0.070543 0.358572 -2.871232
2007-05-08 08:41:18 51°13.808 2°48.787 19.8026 0.070543 0.358572 -2.871232
2007-05-08 08:41:23 51°13.811 2°48.787 19.8035 0.070543 0.358572 -2.871232
2007-05-08 08:41:28 51°13.814 2°48.786 19.8046 0.070543 0.358579 -2.871232
2007-05-08 08:41:33 51°13.818 2°48.787 19.8057 0.070543 0.358579 -2.871232
2007-05-08 08:41:38 51°13.822 2°48.788 19.8069 0.070543 0.358579 -2.871232
2007-05-08 08:41:43 51°13.826 2°48.79 19.8096 0.070543 0.358579 -2.871232
2007-05-08 08:41:48 51°13.83 2°48.793 19.812 0.070543 0.358585 -2.871232
2007-05-08 08:41:53 51°13.835 2°48.797 19.8129 0.070543 0.358585 -2.871232
2007-05-08 08:41:58 51°13.839 2°48.801 19.8155 0.070543 0.358592 -2.871232
2007-05-08 08:42:03 51°13.843 2°48.806 19.8171 0.070543 0.358598 -2.871232
2007-05-08 08:42:08 51°13.846 2°48.812 19.8188 0.070543 0.358598 -2.871232
2007-05-08 08:42:13 51°13.85 2°48.819 19.8205 0.070543 0.358598 -2.871232
2007-05-08 08:42:18 51°13.852 2°48.826 19.8218 0.070543 0.358611 -2.871232
2007-05-08 08:42:23 51°13.855 2°48.834 19.8243 0.070543 0.358611 -2.871232
2007-05-08 08:42:28 51°13.858 2°48.843 19.8257 0.070543 0.358624 -2.871232
2007-05-08 08:42:33 51°13.86 2°48.853 19.8288 0.070646 0.359169 -2.871232
2007-05-08 08:42:38 51°13.864 2°48.864 19.8291 0.070543 0.358637 -2.871232
2007-05-08 08:42:43 51°13.868 2°48.877 19.8316 0.070543 0.358637 -2.871232
2007-05-08 08:42:48 51°13.873 2°48.891 19.8322 0.070543 0.35863 -2.871232
2007-05-08 08:42:53 51°13.878 2°48.907 19.8344 0.070543 0.358624 -2.871232
2007-05-08 08:42:58 51°13.885 2°48.924 19.8351 0.070543 0.358624 -2.871232
2007-05-08 08:43:03 51°13.89 2°48.944 19.8387 0.070543 0.358617 -2.871232
2007-05-08 08:43:08 51°13.899 2°48.962 19.8345 0.070543 0.358592 -2.871232
2007-05-08 08:43:13 51°13.905 2°48.984 19.8419 0.070543 0.358592 -2.871232
2007-05-08 08:43:18 51°13.914 2°49.005 19.8405 0.070543 0.358527 -2.871232
2007-05-08 08:43:23 51°13.921 2°49.029 19.8453 0.070543 0.358437 -2.871232
2007-05-08 08:43:28 51°13.929 2°49.051 19.8433 0.070543 0.358437 -2.871232
2007-05-08 08:43:33 51°13.936 2°49.076 19.8434 0.070543 0.358424 -2.871232
2007-05-08 08:43:38 51°13.942 2°49.1 19.8467 0.070543 0.358437 -2.871232
2007-05-08 08:43:43 51°13.948 2°49.126 19.8502 0.070543 0.358437 -2.871232
2007-05-08 08:43:48 51°13.955 2°49.151 19.8505 0.070543 0.358502 -2.871232
2007-05-08 08:43:53 51°13.962 2°49.177 19.8541 0.070543 0.358559 -2.871232
2007-05-08 08:43:58 51°13.969 2°49.202 19.8535 0.070543 0.358624 -2.871232
2007-05-08 08:44:03 51°13.977 2°49.227 19.8527 0.070543 0.35865 -2.871232
2007-05-08 08:44:08 51°13.982 2°49.253 19.8582 0.070543 0.358669 -2.871232
2007-05-08 08:44:13 51°13.989 2°49.279 19.8593 0.070543 0.358669 -2.871232
2007-05-08 08:44:18 51°13.995 2°49.305 19.8621 0.070543 0.358669 -2.871232
2007-05-08 08:44:23 51°14.003 2°49.33 19.86 0.070543 0.358688 -2.871232
2007-05-08 08:44:27 51°14.007 2°49.351 19.8652 0.070543 0.358662 -2.871232
2007-05-08 08:44:32 51°14.015 2°49.375 19.8629 0.070543 0.358662 -2.871232
2007-05-08 08:44:38 51°14.023 2°49.406 19.8681 0.070543 0.358643 -2.871232
2007-05-08 08:44:43 51°14.03 2°49.431 19.8682 0.070543 0.358643 -2.871232
2007-05-08 08:44:47 51°14.035 2°49.452 19.871 0.070543 0.35863 -2.871232
2007-05-08 08:44:52 51°14.042 2°49.478 19.871 0.070543 0.358643 -2.871232
2007-05-08 08:44:58 51°14.049 2°49.509 19.8748 0.070543 0.358624 -2.871232
2007-05-08 08:45:03 51°14.055 2°49.536 19.8749 0.070543 0.358643 -2.871232
2007-05-08 08:45:07 51°14.06 2°49.557 19.8771 0.070543 0.35865 -2.871232
2007-05-08 08:45:12 51°14.067 2°49.582 19.8784 0.070543 0.35865 -2.871232
2007-05-08 08:45:18 51°14.074 2°49.613 19.8802 0.070543 0.35865 -2.871232
2007-05-08 08:45:22 51°14.08 2°49.633 19.882 0.070543 0.358662 -2.871232
2007-05-08 08:45:28 51°14.088 2°49.664 19.8837 0.070543 0.358662 -2.871232
2007-05-08 08:45:32 51°14.094 2°49.684 19.8864 0.070543 0.358669 -2.871232
2007-05-08 08:45:38 51°14.102 2°49.715 19.8871 0.070543 0.358675 -2.871232
2007-05-08 08:45:42 51°14.108 2°49.736 19.886 0.070543 0.358675 -2.871232
2007-05-08 08:45:47 51°14.114 2°49.761 19.8915 0.070543 0.358656 -2.871232
2007-05-08 08:45:53 51°14.122 2°49.791 19.8905 0.070543 0.358662 -2.871232
2007-05-08 08:45:58 51°14.126 2°49.817 19.8956 0.070543 0.35865 -2.871232
2007-05-08 08:46:02 51°14.131 2°49.838 19.8969 0.070543 0.358675 -2.871232
2007-05-08 08:46:07 51°14.137 2°49.866 19.8972 0.070543 0.358695 -2.871232
2007-05-08 08:46:13 51°14.146 2°49.896 19.8959 0.070543 0.358695 -2.871232
2007-05-08 08:46:18 51°14.149 2°49.922 19.8955 0.070543 0.358662 -2.871232
2007-05-08 08:46:23 51°14.157 2°49.947 19.9015 0.070543 0.358701 -2.871232
2007-05-08 08:46:27 51°14.163 2°49.966 19.9024 0.070543 0.358701 -2.871232
2007-05-08 08:46:32 51°14.17 2°49.992 19.9037 0.070543 0.358688 -2.871232
2007-05-08 08:46:38 51°14.179 2°50.022 19.9052 0.070543 0.358688 -2.871232
2007-05-08 08:46:43 51°14.185 2°50.048 19.9074 0.070543 0.358688 -2.871232
2007-05-08 08:46:47 51°14.19 2°50.069 19.9082 0.070543 0.358675 -2.871232
2007-05-08 08:46:52 51°14.196 2°50.095 19.9094 0.070543 0.358675 -2.871232
2007-05-08 08:46:58 51°14.204 2°50.126 19.9117 0.070543 0.358682 -2.871232
2007-05-08 08:47:03 51°14.209 2°50.153 19.9125 0.070543 0.358662 -2.871232
2007-05-08 08:47:07 51°14.213 2°50.174 19.9128 0.070543 0.358682 -2.871232
2007-05-08 08:47:12 51°14.219 2°50.201 19.9176 0.070543 0.358682 -2.871232
2007-05-08 08:47:18 51°14.226 2°50.233 19.9191 0.070543 0.358688 -2.871232
2007-05-08 08:47:22 51°14.231 2°50.255 19.9188 0.070543 0.358695 -2.871232
2007-05-08 08:47:28 51°14.239 2°50.285 19.9187 0.070543 0.358695 -2.871232
2007-05-08 08:47:32 51°14.241 2°50.307 19.922 0.070543 0.358682 -2.871232
2007-05-08 08:47:38 51°14.247 2°50.34 19.9248 0.070543 0.358708 -2.871232
2007-05-08 08:47:42 51°14.251 2°50.363 19.9259 0.070543 0.358708 -2.871232
2007-05-08 08:47:48 51°14.256 2°50.394 19.9259 0.070543 0.358695 -2.871232
2007-05-08 08:47:53 51°14.26 2°50.421 19.9258 0.070543 0.358714 -2.871232
2007-05-08 08:47:58 51°14.265 2°50.448 19.9276 0.070543 0.35872 -2.871232
2007-05-08 08:48:02 51°14.269 2°50.469 19.9266 0.070543 0.358727 -2.871232
2007-05-08 08:48:07 51°14.275 2°50.496 19.9331 0.070543 0.358727 -2.871232
2007-05-08 08:48:13 51°14.281 2°50.527 19.9358 0.070543 0.358727 -2.871232
2007-05-08 08:48:18 51°14.286 2°50.552 19.9366 0.070543 0.358714 -2.871232
2007-05-08 08:48:22 51°14.289 2°50.574 19.9384 0.070543 0.35872 -2.871232
2007-05-08 08:48:27 51°14.295 2°50.601 19.9386 0.070543 0.358727 -2.871232
2007-05-08 08:48:32 51°14.3 2°50.63 19.9417 0.070543 0.35872 -2.871232
2007-05-08 08:48:38 51°14.306 2°50.662 19.943 0.070543 0.358714 -2.871232
2007-05-08 08:48:43 51°14.309 2°50.689 19.9456 0.070543 0.358714 -2.871232
2007-05-08 08:48:47 51°14.312 2°50.71 19.9477 0.070543 0.358714 -2.871232
2007-05-08 08:48:52 51°14.315 2°50.738 19.9446 0.070543 0.35872 -2.871232
2007-05-08 08:48:58 51°14.32 2°50.771 19.9508 0.070543 0.358733 -2.871232
2007-05-08 08:49:03 51°14.324 2°50.799 19.9495 0.070543 0.358733 -2.871232
2007-05-08 08:49:07 51°14.329 2°50.82 19.9532 0.070543 0.358733 -2.871232
2007-05-08 08:49:12 51°14.333 2°50.846 19.9547 0.070543 0.358733 -2.871232
2007-05-08 08:49:18 51°14.34 2°50.878 19.9558 0.070543 0.358746 -2.871232
2007-05-08 08:49:23 51°14.346 2°50.904 19.957 0.070543 0.35874 -2.871232
2007-05-08 08:49:27 51°14.35 2°50.926 19.957 0.070543 0.358759 -2.871232
2007-05-08 08:49:32 51°14.358 2°50.952 19.9607 0.070543 0.358759 -2.871232
2007-05-08 08:49:37 51°14.363 2°50.979 19.9609 0.070543 0.358753 -2.871232
2007-05-08 08:49:42 51°14.369 2°51.005 19.9645 0.070543 0.358753 -2.871232
2007-05-08 08:49:48 51°14.376 2°51.036 19.9653 0.070543 0.358753 -2.871232
2007-05-08 08:49:52 51°14.379 2°51.059 19.9672 0.070543 0.358746 -2.871232
2007-05-08 08:49:58 51°14.385 2°51.091 19.969 0.070543 0.358753 -2.871232
2007-05-08 08:50:02 51°14.39 2°51.112 19.9708 0.070543 0.358753 -2.871232
2007-05-08 08:50:07 51°14.394 2°51.139 19.9634 0.070543 0.358772 -2.871232
2007-05-08 08:50:13 51°14.402 2°51.171 19.9727 0.070543 0.358772 -2.871232
2007-05-08 08:50:18 51°14.406 2°51.198 19.9751 0.070543 0.358772 -2.871232
2007-05-08 08:50:22 51°14.41 2°51.219 19.9768 0.070543 0.358766 -2.871232
2007-05-08 08:50:27 51°14.413 2°51.246 19.9781 0.070543 0.358759 -2.871232
2007-05-08 08:50:32 51°14.417 2°51.273 19.9804 0.070543 0.358759 -2.871232
2007-05-08 08:50:38 51°14.421 2°51.305 19.9763 0.070543 0.358778 -2.871232
2007-05-08 08:50:43 51°14.427 2°51.331 19.9827 0.070543 0.358778 -2.871232
2007-05-08 08:50:47 51°14.429 2°51.353 19.9815 0.070543 0.358772 -2.871232
2007-05-08 08:50:52 51°14.436 2°51.378 19.9861 0.070543 0.358791 -2.871232
2007-05-08 08:50:58 51°14.438 2°51.412 19.982 0.070543 0.358772 -2.871232
2007-05-08 08:51:03 51°14.443 2°51.441 19.9872 0.070543 0.358785 -2.871232
2007-05-08 08:51:07 51°14.445 2°51.464 19.9817 0.070543 0.358798 -2.871232
2007-05-08 08:51:12 51°14.451 2°51.491 19.9922 0.070543 0.358798 -2.871232
2007-05-08 08:51:18 51°14.456 2°51.522 19.992 0.070543 0.358785 -2.871232
2007-05-08 08:51:23 51°14.46 2°51.549 19.9939 0.070543 0.358785 -2.871232
2007-05-08 08:51:27 51°14.463 2°51.572 19.9959 0.070543 0.358785 -2.871232
2007-05-08 08:51:32 51°14.467 2°51.599 19.9981 0.070543 0.358772 -2.871232
2007-05-08 08:51:37 51°14.47 2°51.627 19.994 0.070543 0.358785 -2.871232
2007-05-08 08:51:43 51°14.475 2°51.661 20.002 0.070543 0.358785 -2.871232
2007-05-08 08:51:48 51°14.477 2°51.688 20.0007 0.070543 0.358778 -2.871232
2007-05-08 08:51:52 51°14.48 2°51.709 20.0054 0.070543 0.358778 -2.871232
2007-05-08 08:51:58 51°14.483 2°51.742 19.9997 0.070543 0.358772 -2.871232
2007-05-08 08:52:02 51°14.486 2°51.765 20.0069 0.070543 0.358804 -2.871232
2007-05-08 08:52:08 51°14.491 2°51.798 20.009 0.070543 0.358791 -2.871232
2007-05-08 08:52:13 51°14.494 2°51.825 20.0072 0.070543 0.358791 -2.871232
2007-05-08 08:52:18 51°14.497 2°51.853 20.01 0.070543 0.358791 -2.871232
2007-05-08 08:52:22 51°14.499 2°51.875 20.0079 0.070543 0.358791 -2.871232
2007-05-08 08:52:28 51°14.504 2°51.908 20.0154 0.070543 0.358804 -2.871232
2007-05-08 08:52:32 51°14.506 2°51.93 20.0173 0.070543 0.358798 -2.871232
2007-05-08 08:52:38 51°14.509 2°51.962 20.0154 0.070543 0.358798 -2.871232
2007-05-08 08:52:43 51°14.511 2°51.989 20.0151 0.070543 0.358798 -2.871232
2007-05-08 08:52:47 51°14.514 2°52.011 20.018 0.070543 0.358811 -2.871232
2007-05-08 08:52:53 51°14.519 2°52.043 20.0199 0.070543 0.358817 -2.871232
2007-05-08 08:52:58 51°14.524 2°52.071 20.0208 0.070543 0.358824 -2.871232
2007-05-08 08:53:03 51°14.529 2°52.097 20.0272 0.070543 0.358817 -2.871232
2007-05-08 08:53:07 51°14.532 2°52.119 20.0273 0.070543 0.358811 -2.871232
2007-05-08 08:53:12 51°14.536 2°52.145 20.0312 0.070543 0.358811 -2.871232
2007-05-08 08:53:18 51°14.539 2°52.177 20.0302 0.070543 0.358804 -2.871232
2007-05-08 08:53:23 51°14.543 2°52.206 20.0333 0.070543 0.358817 -2.871232
2007-05-08 08:53:27 51°14.546 2°52.229 20.0357 0.070543 0.358817 -2.871232
2007-05-08 08:53:32 51°14.548 2°52.257 20.0369 0.070543 0.358817 -2.871232
2007-05-08 08:53:38 51°14.552 2°52.29 20.0394 0.070543 0.358811 -2.871232
2007-05-08 08:53:43 51°14.555 2°52.317 20.0409 0.070543 0.358811 -2.871232
2007-05-08 08:53:48 51°14.556 2°52.344 20.0389 0.070543 0.358811 -2.871232
2007-05-08 08:53:52 51°14.558 2°52.367 20.0433 0.070543 0.358824 -2.871232
2007-05-08 08:53:57 51°14.559 2°52.396 20.0461 0.070543 0.35883 -2.871232
2007-05-08 08:54:02 51°14.561 2°52.425 20.0475 0.070543 0.35883 -2.871232
2007-05-08 08:54:08 51°14.564 2°52.457 20.0498 0.070543 0.358836 -2.871232
2007-05-08 08:54:12 51°14.565 2°52.479 20.0504 0.070543 0.358836 -2.871232
2007-05-08 08:54:18 51°14.567 2°52.512 20.0502 0.070543 0.35883 -2.871232
2007-05-08 08:54:22 51°14.569 2°52.534 20.0541 0.070543 0.358849 -2.871232
2007-05-08 08:54:28 51°14.571 2°52.567 20.0522 0.070543 0.358843 -2.871232
2007-05-08 08:54:32 51°14.574 2°52.589 20.0573 0.070543 0.358856 -2.871232
2007-05-08 08:54:38 51°14.577 2°52.623 20.0591 0.070543 0.358843 -2.871232
2007-05-08 08:54:42 51°14.579 2°52.645 20.0589 0.070543 0.358843 -2.871232
2007-05-08 08:54:47 51°14.582 2°52.674 20.0623 0.070543 0.358849 -2.871232
2007-05-08 08:54:52 51°14.586 2°52.701 20.064 0.070543 0.358849 -2.871232
2007-05-08 08:54:58 51°14.588 2°52.734 20.0657 0.070543 0.358843 -2.871232
2007-05-08 08:55:03 51°14.59 2°52.761 20.0674 0.070543 0.358843 -2.871232
2007-05-08 08:55:07 51°14.592 2°52.784 20.0679 0.070543 0.358843 -2.871232
2007-05-08 08:55:12 51°14.594 2°52.811 20.0711 0.070543 0.358843 -2.871232